Time,TemperatureF,DewpointF,PressureIn,WindDirection,WindDirectionDegrees,WindSpeedMPH,WindSpeedGustMPH,Humidity,HourlyPrecipIn,Conditions,Clouds,dailyrainin,SolarRadiationWatts/m^2,SoftwareType,DateUTC
2013-07-21 00:00:00,83.1,77.4,30.08,SE,126,3.0,7.0,83,0.00,,FEW,0.06,0.00,VWS V14.01,2013-07-21 04:00:00,
2013-07-21 00:01:00,83.1,77.4,30.08,SE,127,2.0,7.0,83,0.00,,FEW,0.06,0.00,VWS V14.01,2013-07-21 04:01:00,
2013-07-21 00:06:00,83.0,77.7,30.08,ESE,119,10.0,10.0,84,0.00,,FEW,0.00,0.00,VWS V14.01,2013-07-21 04:06:00,
2013-07-21 00:11:00,82.9,77.6,30.08,ESE,111,3.0,10.0,84,0.00,,FEW,0.00,0.00,VWS V14.01,2013-07-21 04:11:00,
2013-07-21 00:16:00,82.9,77.9,30.08,SE,132,5.0,7.0,85,0.00,,FEW,0.00,0.00,VWS V14.01,2013-07-21 04:16:00,
2013-07-21 00:21:00,82.8,77.5,30.08,SE,136,2.0,8.0,84,0.00,,FEW,0.00,0.00,VWS V14.01,2013-07-21 04:21:00,
2013-07-21 00:22:00,82.8,77.5,30.08,SSE,165,5.0,8.0,84,0.00,,FEW,0.00,0.00,VWS V14.01,2013-07-21 04:22:00,
2013-07-21 00:26:00,82.8,77.8,30.08,SE,142,3.0,7.0,85,0.00,,FEW,0.00,0.00,VWS V14.01,2013-07-21 04:26:00,
2013-07-21 00:27:00,82.7,77.7,30.08,SE,139,3.0,7.0,85,0.00,,FEW,0.00,0.00,VWS V14.01,2013-07-21 04:27:00,
2013-07-21 00:31:00,82.7,77.7,30.08,SE,136,5.0,8.0,85,0.00,,FEW,0.00,0.00,VWS V14.01,2013-07-21 04:31:00,
2013-07-21 00:32:00,82.7,77.7,30.08,SSE,153,4.0,8.0,85,0.00,,FEW,0.00,0.00,VWS V14.01,2013-07-21 04:32:00,
2013-07-21 00:36:00,82.7,77.7,30.08,SSE,164,3.0,8.0,85,0.00,,FEW,0.00,0.00,VWS V14.01,2013-07-21 04:36:00,
2013-07-21 00:37:00,82.6,77.6,30.08,SSE,151,8.0,8.0,85,0.00,,FEW,0.00,0.00,VWS V14.01,2013-07-21 04:37:00,
2013-07-21 00:41:00,82.7,77.7,30.08,SSE,151,4.0,8.0,85,0.00,,FEW,0.00,0.00,VWS V14.01,2013-07-21 04:41:00,
2013-07-21 00:42:00,82.7,77.7,30.08,SSE,153,6.0,8.0,85,0.00,,FEW,0.00,0.00,VWS V14.01,2013-07-21 04:42:00,
2013-07-21 00:47:00,82.7,78.1,30.07,ESE,121,0.0,11.0,86,0.00,,FEW,0.00,0.00,VWS V14.01,2013-07-21 04:47:00,
2013-07-21 00:52:00,82.7,78.1,30.07,SE,139,4.0,11.0,86,0.00,,FEW,0.00,0.00,VWS V14.01,2013-07-21 04:52:00,
2013-07-21 00:53:00,82.7,78.1,30.07,East,84,1.0,3.0,86,0.00,,FEW,0.00,0.00,VWS V14.01,2013-07-21 04:53:00,
2013-07-21 00:57:00,82.8,78.5,30.07,East,80,3.0,8.0,87,0.00,,FEW,0.00,0.00,VWS V14.01,2013-07-21 04:57:00,
2013-07-21 00:58:00,82.8,78.5,30.07,SE,136,2.0,8.0,87,0.00,,FEW,0.00,0.00,VWS V14.01,2013-07-21 04:58:00,
2013-07-21 01:02:00,82.8,78.5,30.07,ESE,121,2.0,8.0,87,0.00,,FEW,0.00,0.00,VWS V14.01,2013-07-21 05:02:00,
2013-07-21 01:03:00,82.8,78.5,30.07,SSE,151,1.0,2.0,87,0.00,,FEW,0.00,0.00,VWS V14.01,2013-07-21 05:03:00,
2013-07-21 01:07:00,82.8,78.5,30.07,ESE,121,5.0,6.0,87,0.00,,FEW,0.00,0.00,VWS V14.01,2013-07-21 05:07:00,
2013-07-21 01:08:00,82.8,78.5,30.07,SE,128,4.0,6.0,87,0.00,,FEW,0.00,0.00,VWS V14.01,2013-07-21 05:08:00,
2013-07-21 01:12:00,82.7,78.4,30.07,SE,127,2.0,3.0,87,0.00,,FEW,0.00,0.00,VWS V14.01,2013-07-21 05:12:00,
2013-07-21 01:13:00,82.7,78.4,30.07,SSE,148,2.0,5.0,87,0.00,,FEW,0.00,0.00,VWS V14.01,2013-07-21 05:13:00,
2013-07-21 01:17:00,82.7,78.8,30.07,SE,138,3.0,7.0,88,0.00,,FEW,0.00,0.00,VWS V14.01,2013-07-21 05:17:00,
2013-07-21 01:18:00,82.7,78.8,30.07,SE,129,2.0,7.0,88,0.00,,FEW,0.00,0.00,VWS V14.01,2013-07-21 05:18:00,
2013-07-21 01:22:00,82.8,78.9,30.07,SSE,153,5.0,7.0,88,0.00,,FEW,0.00,0.00,VWS V14.01,2013-07-21 05:22:00,
2013-07-21 01:23:00,82.7,78.8,30.07,SSE,163,5.0,7.0,88,0.00,,FEW,0.00,0.00,VWS V14.01,2013-07-21 05:23:00,
2013-07-21 01:24:00,82.7,78.8,30.07,SE,145,7.0,7.0,88,0.00,,FEW,0.00,0.00,VWS V14.01,2013-07-21 05:24:00,
2013-07-21 01:27:00,82.6,78.7,30.07,SE,126,3.0,9.0,88,0.00,,FEW,0.00,0.00,VWS V14.01,2013-07-21 05:27:00,
2013-07-21 01:28:00,82.6,78.7,30.07,SE,144,2.0,9.0,88,0.00,,FEW,0.00,0.00,VWS V14.01,2013-07-21 05:28:00,
2013-07-21 01:29:00,82.6,78.7,30.07,ESE,104,4.0,9.0,88,0.00,,FEW,0.00,0.00,VWS V14.01,2013-07-21 05:29:00,
2013-07-21 01:32:00,82.6,78.7,30.06,SE,130,8.0,8.0,88,0.00,,FEW,0.00,0.00,VWS V14.01,2013-07-21 05:32:00,
2013-07-21 01:33:00,82.6,78.7,30.06,SE,125,4.0,8.0,88,0.00,,FEW,0.00,0.00,VWS V14.01,2013-07-21 05:33:00,
2013-07-21 01:34:00,82.6,78.7,30.06,SSE,153,4.0,8.0,88,0.00,,FEW,0.00,0.00,VWS V14.01,2013-07-21 05:34:00,
2013-07-21 01:37:00,82.5,78.6,30.06,SE,142,4.0,8.0,88,0.00,,FEW,0.00,0.00,VWS V14.01,2013-07-21 05:37:00,
2013-07-21 01:38:00,82.5,78.6,30.06,SSE,159,2.0,8.0,88,0.00,,FEW,0.00,0.00,VWS V14.01,2013-07-21 05:38:00,
2013-07-21 01:39:00,82.5,78.6,30.06,SE,129,1.0,8.0,88,0.00,,FEW,0.00,0.00,VWS V14.01,2013-07-21 05:39:00,
2013-07-21 01:42:00,82.5,78.6,30.06,SE,144,8.0,8.0,88,0.00,,FEW,0.00,0.00,VWS V14.01,2013-07-21 05:42:00,
2013-07-21 01:43:00,82.6,78.7,30.06,SE,126,3.0,8.0,88,0.00,,FEW,0.00,0.00,VWS V14.01,2013-07-21 05:43:00,
2013-07-21 01:44:00,82.6,78.7,30.06,ESE,113,4.0,8.0,88,0.00,,FEW,0.00,0.00,VWS V14.01,2013-07-21 05:44:00,
2013-07-21 01:47:00,82.5,78.6,30.06,SSE,163,7.0,9.0,88,0.00,,FEW,0.00,0.00,VWS V14.01,2013-07-21 05:47:00,
2013-07-21 01:48:00,82.5,78.6,30.06,SE,138,6.0,9.0,88,0.00,,FEW,0.00,0.00,VWS V14.01,2013-07-21 05:48:00,
2013-07-21 01:49:00,82.5,78.6,30.06,ESE,108,8.0,9.0,88,0.00,,FEW,0.00,0.00,VWS V14.01,2013-07-21 05:49:00,
2013-07-21 01:52:00,82.5,78.6,30.06,SE,129,9.0,9.0,88,0.00,,FEW,0.00,0.00,VWS V14.01,2013-07-21 05:52:00,
2013-07-21 01:53:00,82.5,78.6,30.06,SSE,163,3.0,9.0,88,0.00,,FEW,0.00,0.00,VWS V14.01,2013-07-21 05:53:00,
2013-07-21 01:54:00,82.5,78.6,30.06,SE,126,1.0,9.0,88,0.00,,FEW,0.00,0.00,VWS V14.01,2013-07-21 05:54:00,
2013-07-21 01:58:00,82.5,78.6,30.06,SE,134,5.0,9.0,88,0.00,,FEW,0.00,0.00,VWS V14.01,2013-07-21 05:58:00,
2013-07-21 01:59:00,82.5,78.6,30.06,SE,130,2.0,9.0,88,0.00,,FEW,0.00,0.00,VWS V14.01,2013-07-21 05:59:00,
2013-07-21 02:03:00,82.6,78.7,30.06,SE,143,7.0,8.0,88,0.00,,FEW,0.00,0.00,VWS V14.01,2013-07-21 06:03:00,
2013-07-21 02:04:00,82.6,78.7,30.06,SE,138,3.0,8.0,88,0.00,,FEW,0.00,0.00,VWS V14.01,2013-07-21 06:04:00,
2013-07-21 02:05:00,82.6,78.7,30.06,SE,141,0.0,8.0,88,0.00,,FEW,0.00,0.00,VWS V14.01,2013-07-21 06:05:00,
2013-07-21 02:08:00,82.6,78.7,30.06,SE,138,1.0,10.0,88,0.00,,FEW,0.00,0.00,VWS V14.01,2013-07-21 06:08:00,
2013-07-21 02:09:00,82.6,78.7,30.06,SSE,163,5.0,10.0,88,0.00,,FEW,0.00,0.00,VWS V14.01,2013-07-21 06:09:00,
2013-07-21 02:10:00,82.6,78.7,30.06,SSE,147,8.0,10.0,88,0.00,,FEW,0.00,0.00,VWS V14.01,2013-07-21 06:10:00,
2013-07-21 02:13:00,82.5,78.6,30.06,South,186,6.0,6.0,88,0.00,,FEW,0.00,0.00,VWS V14.01,2013-07-21 06:13:00,
2013-07-21 02:14:00,82.5,78.6,30.06,SE,130,3.0,9.0,88,0.00,,FEW,0.00,0.00,VWS V14.01,2013-07-21 06:14:00,
2013-07-21 02:15:00,82.5,78.6,30.06,SSE,155,4.0,9.0,88,0.00,,FEW,0.00,0.00,VWS V14.01,2013-07-21 06:15:00,
2013-07-21 02:18:00,82.5,78.6,30.06,SE,128,3.0,9.0,88,0.00,,FEW,0.00,0.00,VWS V14.01,2013-07-21 06:18:00,
2013-07-21 02:19:00,82.5,78.6,30.06,SSE,153,6.0,9.0,88,0.00,,FEW,0.00,0.00,VWS V14.01,2013-07-21 06:19:00,
2013-07-21 02:20:00,82.4,78.5,30.06,SE,142,5.0,9.0,88,0.00,,FEW,0.00,0.00,VWS V14.01,2013-07-21 06:20:00,
2013-07-21 02:21:00,82.4,78.5,30.06,SE,132,2.0,9.0,88,0.00,,FEW,0.00,0.00,VWS V14.01,2013-07-21 06:21:00,
2013-07-21 02:23:00,82.4,78.5,30.06,SE,132,2.0,8.0,88,0.00,,FEW,0.00,0.00,VWS V14.01,2013-07-21 06:23:00,
2013-07-21 02:24:00,82.4,78.5,30.06,SSE,149,5.0,8.0,88,0.00,,FEW,0.00,0.00,VWS V14.01,2013-07-21 06:24:00,
2013-07-21 02:25:00,82.4,78.5,30.06,SE,134,5.0,8.0,88,0.00,,FEW,0.00,0.00,VWS V14.01,2013-07-21 06:25:00,
2013-07-21 02:26:00,82.3,78.4,30.06,SE,124,5.0,8.0,88,0.00,,FEW,0.00,0.00,VWS V14.01,2013-07-21 06:26:00,
2013-07-21 02:28:00,82.3,78.4,30.06,SSE,152,4.0,9.0,88,0.00,,FEW,0.00,0.00,VWS V14.01,2013-07-21 06:28:00,
2013-07-21 02:29:00,82.3,78.4,30.06,SE,138,4.0,9.0,88,0.00,,FEW,0.00,0.00,VWS V14.01,2013-07-21 06:29:00,
2013-07-21 02:30:00,82.3,78.4,30.06,SE,138,4.0,9.0,88,0.00,,FEW,0.00,0.00,VWS V14.01,2013-07-21 06:30:00,
2013-07-21 02:32:00,82.3,78.4,30.05,SE,142,3.0,9.0,88,0.00,,FEW,0.00,0.00,VWS V14.01,2013-07-21 06:32:00,
2013-07-21 02:33:00,82.3,78.4,30.05,SE,138,1.0,9.0,88,0.00,,FEW,0.00,0.00,VWS V14.01,2013-07-21 06:33:00,
2013-07-21 02:34:00,82.3,78.4,30.05,SSE,153,3.0,9.0,88,0.00,,FEW,0.00,0.00,VWS V14.01,2013-07-21 06:34:00,
2013-07-21 02:35:00,82.3,78.4,30.05,SSE,151,4.0,9.0,88,0.00,,FEW,0.00,0.00,VWS V14.01,2013-07-21 06:35:00,
2013-07-21 02:37:00,82.3,78.4,30.05,ESE,109,2.0,9.0,88,0.00,,FEW,0.00,0.00,VWS V14.01,2013-07-21 06:37:00,
2013-07-21 02:38:00,82.3,78.4,30.05,SE,135,4.0,9.0,88,0.00,,FEW,0.00,0.00,VWS V14.01,2013-07-21 06:38:00,
2013-07-21 02:39:00,82.4,78.5,30.05,SSE,159,5.0,9.0,88,0.00,,FEW,0.00,0.00,VWS V14.01,2013-07-21 06:39:00,
2013-07-21 02:40:00,82.4,78.5,30.05,SSE,155,2.0,9.0,88,0.00,,FEW,0.00,0.00,VWS V14.01,2013-07-21 06:40:00,
2013-07-21 02:42:00,82.4,78.5,30.05,SSE,148,8.0,9.0,88,0.00,,FEW,0.00,0.00,VWS V14.01,2013-07-21 06:42:00,
2013-07-21 02:43:00,82.3,78.4,30.05,SSE,166,1.0,7.0,88,0.00,,FEW,0.00,0.00,VWS V14.01,2013-07-21 06:43:00,
2013-07-21 02:44:00,82.3,78.4,30.05,SE,137,5.0,7.0,88,0.00,,FEW,0.00,0.00,VWS V14.01,2013-07-21 06:44:00,
2013-07-21 02:45:00,82.3,78.4,30.05,South,175,5.0,7.0,88,0.00,,FEW,0.00,0.00,VWS V14.01,2013-07-21 06:45:00,
2013-07-21 02:47:00,82.3,78.4,30.05,SSE,152,3.0,7.0,88,0.00,,FEW,0.00,0.00,VWS V14.01,2013-07-21 06:47:00,
2013-07-21 02:48:00,82.3,78.4,30.05,SE,132,5.0,10.0,88,0.00,,FEW,0.00,0.00,VWS V14.01,2013-07-21 06:48:00,
2013-07-21 02:50:00,82.3,78.4,30.05,SSE,168,6.0,10.0,88,0.00,,FEW,0.00,0.00,VWS V14.01,2013-07-21 06:50:00,
2013-07-21 02:51:00,82.3,78.4,30.05,SSE,152,3.0,10.0,88,0.00,,FEW,0.00,0.00,VWS V14.01,2013-07-21 06:51:00,
2013-07-21 02:52:00,82.4,78.5,30.05,SE,132,1.0,3.0,88,0.00,,FEW,0.00,0.00,VWS V14.01,2013-07-21 06:52:00,
2013-07-21 02:54:00,82.4,78.5,30.05,SE,139,6.0,6.0,88,0.00,,FEW,0.00,0.00,VWS V14.01,2013-07-21 06:54:00,
2013-07-21 02:55:00,82.4,78.5,30.05,SE,144,5.0,6.0,88,0.00,,FEW,0.00,0.00,VWS V14.01,2013-07-21 06:55:00,
2013-07-21 02:56:00,82.4,78.5,30.05,SE,140,3.0,6.0,88,0.00,,FEW,0.00,0.00,VWS V14.01,2013-07-21 06:56:00,
2013-07-21 02:57:00,82.4,78.5,30.05,SSE,158,6.0,7.0,88,0.00,,FEW,0.00,0.00,VWS V14.01,2013-07-21 06:57:00,
2013-07-21 02:59:00,82.4,78.5,30.05,ESE,106,3.0,10.0,88,0.00,,FEW,0.00,0.00,VWS V14.01,2013-07-21 06:59:00,
2013-07-21 03:00:00,82.4,78.5,30.05,SE,135,3.0,10.0,88,0.00,,FEW,0.00,0.00,VWS V14.01,2013-07-21 07:00:00,
2013-07-21 03:01:00,82.4,78.5,30.05,SE,124,5.0,10.0,88,0.00,,FEW,0.00,0.00,VWS V14.01,2013-07-21 07:01:00,
2013-07-21 03:03:00,82.4,78.5,30.05,SE,137,3.0,5.0,88,0.00,,FEW,0.00,0.00,VWS V14.01,2013-07-21 07:03:00,
2013-07-21 03:04:00,82.4,78.5,30.05,ESE,109,7.0,9.0,88,0.00,,FEW,0.00,0.00,VWS V14.01,2013-07-21 07:04:00,
2013-07-21 03:05:00,82.4,78.5,30.05,SE,137,5.0,9.0,88,0.00,,FEW,0.00,0.00,VWS V14.01,2013-07-21 07:05:00,
2013-07-21 03:06:00,82.3,78.4,30.05,SE,144,4.0,9.0,88,0.00,,FEW,0.00,0.00,VWS V14.01,2013-07-21 07:06:00,
2013-07-21 03:08:00,82.3,78.4,30.05,SE,129,7.0,9.0,88,0.00,,FEW,0.00,0.00,VWS V14.01,2013-07-21 07:08:00,
2013-07-21 03:09:00,82.3,78.4,30.05,SSE,161,5.0,9.0,88,0.00,,FEW,0.00,0.00,VWS V14.01,2013-07-21 07:09:00,
2013-07-21 03:10:00,82.3,78.4,30.05,SE,146,6.0,9.0,88,0.00,,FEW,0.00,0.00,VWS V14.01,2013-07-21 07:10:00,
2013-07-21 03:11:00,82.3,78.4,30.05,SSE,154,8.0,9.0,88,0.00,,FEW,0.00,0.00,VWS V14.01,2013-07-21 07:11:00,
2013-07-21 03:13:00,82.2,78.3,30.05,SE,140,3.0,7.0,88,0.00,,FEW,0.00,0.00,VWS V14.01,2013-07-21 07:13:00,
2013-07-21 03:15:00,82.2,78.3,30.05,SE,141,3.0,7.0,88,0.00,,FEW,0.00,0.00,VWS V14.01,2013-07-21 07:15:00,
2013-07-21 03:16:00,82.2,78.3,30.05,SSE,157,5.0,8.0,88,0.00,,FEW,0.00,0.00,VWS V14.01,2013-07-21 07:16:00,
2013-07-21 03:19:00,82.3,78.4,30.05,SE,129,3.0,8.0,88,0.00,,FEW,0.00,0.00,VWS V14.01,2013-07-21 07:19:00,
2013-07-21 03:20:00,82.3,78.4,30.05,SE,126,2.0,8.0,88,0.00,,FEW,0.00,0.00,VWS V14.01,2013-07-21 07:20:00,
2013-07-21 03:21:00,82.3,78.4,30.05,SE,124,4.0,8.0,88,0.00,,FEW,0.00,0.00,VWS V14.01,2013-07-21 07:21:00,
2013-07-21 03:24:00,82.3,78.4,30.05,SE,128,5.0,6.0,88,0.00,,FEW,0.00,0.00,VWS V14.01,2013-07-21 07:24:00,
2013-07-21 03:25:00,82.4,78.5,30.05,SSE,153,6.0,8.0,88,0.00,,FEW,0.00,0.00,VWS V14.01,2013-07-21 07:25:00,
2013-07-21 03:26:00,82.4,78.5,30.05,SSE,165,5.0,8.0,88,0.00,,FEW,0.00,0.00,VWS V14.01,2013-07-21 07:26:00,
2013-07-21 03:27:00,82.3,78.4,30.05,ESE,105,3.0,10.0,88,0.00,,FEW,0.00,0.00,VWS V14.01,2013-07-21 07:27:00,
2013-07-21 03:29:00,82.3,78.4,30.05,SE,128,5.0,10.0,88,0.00,,FEW,0.00,0.00,VWS V14.01,2013-07-21 07:29:00,
2013-07-21 03:30:00,82.2,78.3,30.05,SE,142,6.0,10.0,88,0.00,,FEW,0.00,0.00,VWS V14.01,2013-07-21 07:30:00,
2013-07-21 03:31:00,82.2,78.3,30.05,SE,142,4.0,10.0,88,0.00,,FEW,0.00,0.00,VWS V14.01,2013-07-21 07:31:00,
2013-07-21 03:32:00,82.2,78.3,30.05,SE,144,6.0,10.0,88,0.00,,FEW,0.00,0.00,VWS V14.01,2013-07-21 07:32:00,
2013-07-21 03:34:00,82.2,78.3,30.05,SE,128,4.0,7.0,88,0.00,,FEW,0.00,0.00,VWS V14.01,2013-07-21 07:34:00,
2013-07-21 03:35:00,82.2,78.3,30.05,SE,146,2.0,7.0,88,0.00,,FEW,0.00,0.00,VWS V14.01,2013-07-21 07:35:00,
2013-07-21 03:36:00,82.2,78.3,30.05,SSE,165,2.0,7.0,88,0.00,,FEW,0.00,0.00,VWS V14.01,2013-07-21 07:36:00,
2013-07-21 03:37:00,82.2,78.3,30.05,SE,137,5.0,7.0,88,0.00,,FEW,0.00,0.00,VWS V14.01,2013-07-21 07:37:00,
2013-07-21 03:39:00,82.2,78.3,30.05,SE,136,6.0,8.0,88,0.00,,FEW,0.00,0.00,VWS V14.01,2013-07-21 07:39:00,
2013-07-21 03:40:00,82.2,78.3,30.05,SE,138,3.0,8.0,88,0.00,,FEW,0.00,0.00,VWS V14.01,2013-07-21 07:40:00,
2013-07-21 03:41:00,82.2,78.3,30.05,SSE,153,5.0,8.0,88,0.00,,FEW,0.00,0.00,VWS V14.01,2013-07-21 07:41:00,
2013-07-21 03:42:00,82.2,78.3,30.05,SE,132,5.0,10.0,88,0.00,,FEW,0.00,0.00,VWS V14.01,2013-07-21 07:42:00,
2013-07-21 03:43:00,82.2,78.3,30.05,SE,128,3.0,8.0,88,0.00,,FEW,0.00,0.00,VWS V14.01,2013-07-21 07:43:00,
2013-07-21 03:44:00,82.3,78.4,30.05,SE,130,5.0,8.0,88,0.00,,FEW,0.00,0.00,VWS V14.01,2013-07-21 07:44:00,
2013-07-21 03:45:00,82.3,78.4,30.05,ESE,122,3.0,8.0,88,0.00,,FEW,0.00,0.00,VWS V14.01,2013-07-21 07:45:00,
2013-07-21 03:47:00,82.3,78.4,30.05,SE,143,6.0,8.0,88,0.00,,FEW,0.00,0.00,VWS V14.01,2013-07-21 07:47:00,
2013-07-21 03:48:00,82.3,78.4,30.05,SE,137,1.0,10.0,88,0.00,,FEW,0.00,0.00,VWS V14.01,2013-07-21 07:48:00,
2013-07-21 03:49:00,82.3,78.4,30.05,SE,139,2.0,10.0,88,0.00,,FEW,0.00,0.00,VWS V14.01,2013-07-21 07:49:00,
2013-07-21 03:51:00,82.3,78.4,30.05,South,171,5.0,10.0,88,0.00,,FEW,0.00,0.00,VWS V14.01,2013-07-21 07:51:00,
2013-07-21 03:52:00,82.3,78.4,30.05,ESE,113,7.0,10.0,88,0.00,,FEW,0.00,0.00,VWS V14.01,2013-07-21 07:52:00,
2013-07-21 03:54:00,82.3,78.4,30.05,East,100,3.0,7.0,88,0.00,,FEW,0.00,0.00,VWS V14.01,2013-07-21 07:54:00,
2013-07-21 03:56:00,82.3,78.4,30.05,SSE,167,4.0,8.0,88,0.00,,FEW,0.00,0.00,VWS V14.01,2013-07-21 07:56:00,
2013-07-21 03:57:00,82.3,78.4,30.05,SE,132,2.0,8.0,88,0.00,,FEW,0.00,0.00,VWS V14.01,2013-07-21 07:57:00,
2013-07-21 03:59:00,82.3,78.4,30.05,SE,124,4.0,8.0,88,0.00,,FEW,0.00,0.00,VWS V14.01,2013-07-21 07:59:00,
2013-07-21 04:01:00,82.3,78.4,30.05,SSE,155,7.0,8.0,88,0.00,,FEW,0.00,0.00,VWS V14.01,2013-07-21 08:01:00,
2013-07-21 04:02:00,82.2,78.3,30.05,SSE,150,3.0,3.0,88,0.00,,FEW,0.00,0.00,VWS V14.01,2013-07-21 08:02:00,
2013-07-21 04:04:00,82.3,78.4,30.05,SE,132,6.0,7.0,88,0.00,,FEW,0.00,0.00,VWS V14.01,2013-07-21 08:04:00,
2013-07-21 04:06:00,82.2,78.3,30.05,SSE,161,7.0,8.0,88,0.00,,FEW,0.00,0.00,VWS V14.01,2013-07-21 08:06:00,
2013-07-21 04:07:00,82.2,78.3,30.05,SSE,157,10.0,10.0,88,0.00,,FEW,0.00,0.00,VWS V14.01,2013-07-21 08:07:00,
2013-07-21 04:10:00,82.1,77.8,30.05,SSE,148,8.0,10.0,87,0.00,,FEW,0.00,0.00,VWS V14.01,2013-07-21 08:10:00,
2013-07-21 04:11:00,82.1,77.8,30.05,SE,138,4.0,10.0,87,0.00,,FEW,0.00,0.00,VWS V14.01,2013-07-21 08:11:00,
2013-07-21 04:12:00,82.1,77.8,30.05,SE,146,5.0,6.0,87,0.00,,FEW,0.00,0.00,VWS V14.01,2013-07-21 08:12:00,
2013-07-21 04:15:00,82.1,77.8,30.05,SE,142,7.0,10.0,87,0.00,,FEW,0.00,0.00,VWS V14.01,2013-07-21 08:15:00,
2013-07-21 04:16:00,82.2,77.9,30.05,SE,124,4.0,10.0,87,0.00,,FEW,0.00,0.00,VWS V14.01,2013-07-21 08:16:00,
2013-07-21 04:17:00,82.2,77.9,30.04,SSE,167,4.0,10.0,87,0.00,,FEW,0.00,0.00,VWS V14.01,2013-07-21 08:17:00,
2013-07-21 04:20:00,82.2,78.3,30.04,SE,144,6.0,10.0,88,0.00,,FEW,0.00,0.00,VWS V14.01,2013-07-21 08:20:00,
2013-07-21 04:21:00,82.3,78.4,30.04,SSE,154,7.0,10.0,88,0.00,,FEW,0.00,0.00,VWS V14.01,2013-07-21 08:21:00,
2013-07-21 04:22:00,82.3,78.1,30.04,SSE,153,3.0,4.0,87,0.00,,FEW,0.00,0.00,VWS V14.01,2013-07-21 08:22:00,
2013-07-21 04:25:00,82.2,77.9,30.04,SE,131,2.0,6.0,87,0.00,,FEW,0.00,0.00,VWS V14.01,2013-07-21 08:25:00,
2013-07-21 04:26:00,82.2,77.9,30.04,SSE,147,4.0,6.0,87,0.00,,FEW,0.00,0.00,VWS V14.01,2013-07-21 08:26:00,
2013-07-21 04:27:00,82.2,78.3,30.04,SSW,192,3.0,8.0,88,0.00,,FEW,0.00,0.00,VWS V14.01,2013-07-21 08:27:00,
2013-07-21 04:28:00,82.2,78.3,30.04,SE,140,4.0,8.0,88,0.00,,FEW,0.00,0.00,VWS V14.01,2013-07-21 08:28:00,
2013-07-21 04:30:00,82.2,78.3,30.04,South,169,3.0,8.0,88,0.00,,FEW,0.00,0.00,VWS V14.01,2013-07-21 08:30:00,
2013-07-21 04:31:00,82.2,78.3,30.04,South,171,1.0,8.0,88,0.00,,FEW,0.00,0.00,VWS V14.01,2013-07-21 08:31:00,
2013-07-21 04:33:00,82.2,78.3,30.04,SE,130,3.0,7.0,88,0.00,,FEW,0.00,0.00,VWS V14.01,2013-07-21 08:33:00,
2013-07-21 04:35:00,82.2,77.9,30.04,SSE,148,4.0,8.0,87,0.00,,FEW,0.00,0.00,VWS V14.01,2013-07-21 08:35:00,
2013-07-21 04:36:00,82.2,77.9,30.04,SE,139,4.0,8.0,87,0.00,,FEW,0.00,0.00,VWS V14.01,2013-07-21 08:36:00,
2013-07-21 04:38:00,82.2,78.3,30.04,ESE,114,3.0,8.0,88,0.00,,FEW,0.00,0.00,VWS V14.01,2013-07-21 08:38:00,
2013-07-21 04:39:00,82.2,78.3,30.04,ESE,123,4.0,8.0,88,0.00,,FEW,0.00,0.00,VWS V14.01,2013-07-21 08:39:00,
2013-07-21 04:40:00,82.2,78.3,30.04,SE,141,3.0,8.0,88,0.00,,FEW,0.00,0.00,VWS V14.01,2013-07-21 08:40:00,
2013-07-21 04:41:00,82.2,78.3,30.04,SSE,166,2.0,8.0,88,0.00,,FEW,0.00,0.00,VWS V14.01,2013-07-21 08:41:00,
2013-07-21 04:43:00,82.2,78.3,30.04,SE,140,4.0,7.0,88,0.00,,FEW,0.00,0.00,VWS V14.01,2013-07-21 08:43:00,
2013-07-21 04:44:00,82.2,78.3,30.04,South,170,4.0,8.0,88,0.00,,FEW,0.00,0.00,VWS V14.01,2013-07-21 08:44:00,
2013-07-21 04:45:00,82.2,78.3,30.04,SSE,150,7.0,8.0,88,0.00,,FEW,0.00,0.00,VWS V14.01,2013-07-21 08:45:00,
2013-07-21 04:47:00,82.2,78.3,30.04,ESE,114,4.0,8.0,88,0.00,,FEW,0.00,0.00,VWS V14.01,2013-07-21 08:47:00,
2013-07-21 04:48:00,82.1,78.2,30.04,SE,131,2.0,8.0,88,0.00,,FEW,0.00,0.00,VWS V14.01,2013-07-21 08:48:00,
2013-07-21 04:49:00,82.2,78.3,30.04,SE,146,1.0,8.0,88,0.00,,FEW,0.00,0.00,VWS V14.01,2013-07-21 08:49:00,
2013-07-21 04:50:00,82.2,78.3,30.04,SSE,150,7.0,8.0,88,0.00,,FEW,0.00,0.00,VWS V14.01,2013-07-21 08:50:00,
2013-07-21 04:51:00,82.2,78.3,30.04,ESE,105,3.0,8.0,88,0.00,,FEW,0.00,0.00,VWS V14.01,2013-07-21 08:51:00,
2013-07-21 04:52:00,82.2,78.3,30.04,SE,140,5.0,8.0,88,0.00,,FEW,0.00,0.00,VWS V14.01,2013-07-21 08:52:00,
2013-07-21 04:53:00,82.2,78.3,30.04,SSE,148,4.0,4.0,88,0.00,,FEW,0.00,0.00,VWS V14.01,2013-07-21 08:53:00,
2013-07-21 04:55:00,82.2,78.3,30.04,SSE,158,5.0,5.0,88,0.00,,FEW,0.00,0.00,VWS V14.01,2013-07-21 08:55:00,
2013-07-21 04:56:00,82.2,78.3,30.04,ESE,113,4.0,5.0,88,0.00,,FEW,0.00,0.00,VWS V14.01,2013-07-21 08:56:00,
2013-07-21 04:57:00,82.2,78.3,30.04,SE,139,6.0,6.0,88,0.00,,FEW,0.00,0.00,VWS V14.01,2013-07-21 08:57:00,
2013-07-21 04:58:00,82.2,78.3,30.04,SE,138,2.0,6.0,88,0.00,,FEW,0.00,0.00,VWS V14.01,2013-07-21 08:58:00,
2013-07-21 05:00:00,82.2,78.3,30.04,ESE,120,3.0,6.0,88,0.00,,FEW,0.00,0.00,VWS V14.01,2013-07-21 09:00:00,
2013-07-21 05:01:00,82.2,78.3,30.04,SE,133,2.0,6.0,88,0.00,,FEW,0.00,0.00,VWS V14.01,2013-07-21 09:01:00,
2013-07-21 05:02:00,82.1,78.2,30.04,SSE,158,4.0,7.0,88,0.00,,FEW,0.00,0.00,VWS V14.01,2013-07-21 09:02:00,
2013-07-21 05:03:00,82.1,78.2,30.04,ESE,122,2.0,5.0,88,0.00,,FEW,0.00,0.00,VWS V14.01,2013-07-21 09:03:00,
2013-07-21 05:05:00,82.1,78.2,30.04,ESE,107,4.0,7.0,88,0.00,,FEW,0.00,0.00,VWS V14.01,2013-07-21 09:05:00,
2013-07-21 05:06:00,82.1,78.2,30.04,East,92,2.0,7.0,88,0.00,,FEW,0.00,0.00,VWS V14.01,2013-07-21 09:06:00,
2013-07-21 05:07:00,82.1,78.2,30.04,ESE,117,3.0,7.0,88,0.00,,FEW,0.00,0.00,VWS V14.01,2013-07-21 09:07:00,
2013-07-21 05:08:00,82.2,78.3,30.04,SE,127,2.0,7.0,88,0.00,,FEW,0.00,0.00,VWS V14.01,2013-07-21 09:08:00,
2013-07-21 05:10:00,82.2,78.3,30.04,SE,136,1.0,7.0,88,0.00,,FEW,0.00,0.00,VWS V14.01,2013-07-21 09:10:00,
2013-07-21 05:11:00,82.2,78.3,30.04,SE,131,4.0,7.0,88,0.00,,FEW,0.00,0.00,VWS V14.01,2013-07-21 09:11:00,
2013-07-21 05:12:00,82.2,78.3,30.04,SE,134,6.0,7.0,88,0.00,,FEW,0.00,0.00,VWS V14.01,2013-07-21 09:12:00,
2013-07-21 05:13:00,82.1,78.2,30.04,SE,139,1.0,4.0,88,0.00,,FEW,0.00,0.00,VWS V14.01,2013-07-21 09:13:00,
2013-07-21 05:15:00,82.1,78.2,30.04,SSE,151,2.0,5.0,88,0.00,,FEW,0.00,0.00,VWS V14.01,2013-07-21 09:15:00,
2013-07-21 05:16:00,82.1,78.2,30.04,ESE,121,2.0,5.0,88,0.00,,FEW,0.00,0.00,VWS V14.01,2013-07-21 09:16:00,
2013-07-21 05:17:00,82.1,78.2,30.05,SE,142,2.0,5.0,88,0.00,,FEW,0.00,0.00,VWS V14.01,2013-07-21 09:17:00,
2013-07-21 05:19:00,82.1,78.2,30.05,SE,136,3.0,5.0,88,0.00,,FEW,0.00,0.00,VWS V14.01,2013-07-21 09:19:00,
2013-07-21 05:20:00,82.1,78.2,30.05,SE,138,5.0,5.0,88,0.00,,FEW,0.00,0.00,VWS V14.01,2013-07-21 09:20:00,
2013-07-21 05:21:00,82.1,78.2,30.05,SE,138,2.0,5.0,88,0.00,,FEW,0.00,0.00,VWS V14.01,2013-07-21 09:21:00,
2013-07-21 05:22:00,82.1,78.2,30.05,SSE,148,3.0,5.0,88,0.00,,FEW,0.00,0.00,VWS V14.01,2013-07-21 09:22:00,
2013-07-21 05:24:00,82.0,78.1,30.05,South,177,2.0,6.0,88,0.00,,FEW,0.00,0.00,VWS V14.01,2013-07-21 09:24:00,
2013-07-21 05:25:00,82.0,78.1,30.05,SE,142,3.0,6.0,88,0.00,,FEW,0.00,0.00,VWS V14.01,2013-07-21 09:25:00,
2013-07-21 05:26:00,82.0,77.8,30.05,SE,136,5.0,6.0,87,0.00,,FEW,0.00,0.00,VWS V14.01,2013-07-21 09:26:00,
2013-07-21 05:27:00,82.0,77.8,30.05,SE,130,4.0,6.0,87,0.00,,FEW,0.00,0.00,VWS V14.01,2013-07-21 09:27:00,
2013-07-21 05:29:00,82.0,77.8,30.05,ESE,118,2.0,6.0,87,0.00,,FEW,0.00,0.00,VWS V14.01,2013-07-21 09:29:00,
2013-07-21 05:30:00,82.0,77.8,30.05,SE,140,1.0,6.0,87,0.00,,FEW,0.00,0.00,VWS V14.01,2013-07-21 09:30:00,
2013-07-21 05:32:00,82.0,78.1,30.05,SE,133,2.0,6.0,88,0.00,,FEW,0.00,0.00,VWS V14.01,2013-07-21 09:32:00,
2013-07-21 05:34:00,82.0,78.1,30.05,SSE,151,3.0,8.0,88,0.00,,FEW,0.00,0.00,VWS V14.01,2013-07-21 09:34:00,
2013-07-21 05:35:00,82.0,77.8,30.05,SSE,155,4.0,8.0,87,0.00,,FEW,0.00,0.00,VWS V14.01,2013-07-21 09:35:00,
2013-07-21 05:37:00,82.0,77.8,30.05,SE,128,3.0,8.0,87,0.00,,FEW,0.00,0.00,VWS V14.01,2013-07-21 09:37:00,
2013-07-21 05:38:00,82.0,77.8,30.05,SE,126,1.0,8.0,87,0.00,,FEW,0.00,0.00,VWS V14.01,2013-07-21 09:38:00,
2013-07-21 05:39:00,82.0,77.8,30.05,SSE,149,4.0,8.0,87,0.00,,FEW,0.00,0.00,VWS V14.01,2013-07-21 09:39:00,
2013-07-21 05:40:00,82.0,77.8,30.05,SE,140,3.0,8.0,87,0.00,,FEW,0.00,0.00,VWS V14.01,2013-07-21 09:40:00,
2013-07-21 05:42:00,82.0,78.1,30.05,SSE,157,3.0,8.0,88,0.00,,FEW,0.00,0.00,VWS V14.01,2013-07-21 09:42:00,
2013-07-21 05:43:00,82.0,78.1,30.05,SE,135,3.0,5.0,88,0.00,,FEW,0.00,0.00,VWS V14.01,2013-07-21 09:43:00,
2013-07-21 05:44:00,82.0,77.8,30.05,SSE,148,4.0,6.0,87,0.00,,FEW,0.00,0.00,VWS V14.01,2013-07-21 09:44:00,
2013-07-21 05:45:00,82.0,77.8,30.05,ESE,109,3.0,7.0,87,0.00,,FEW,0.00,0.00,VWS V14.01,2013-07-21 09:45:00,
2013-07-21 05:47:00,82.0,77.8,30.05,SE,138,3.0,7.0,87,0.00,,FEW,0.00,0.00,VWS V14.01,2013-07-21 09:47:00,
2013-07-21 05:48:00,82.0,77.8,30.05,SE,138,3.0,7.0,87,0.00,,FEW,0.00,0.00,VWS V14.01,2013-07-21 09:48:00,
2013-07-21 05:49:00,82.0,77.8,30.05,SSE,153,1.0,7.0,87,0.00,,FEW,0.00,0.00,VWS V14.01,2013-07-21 09:49:00,
2013-07-21 05:51:00,82.0,77.8,30.05,SE,125,2.0,7.0,87,0.00,,FEW,0.00,0.00,VWS V14.01,2013-07-21 09:51:00,
2013-07-21 05:53:00,82.0,78.1,30.05,ESE,123,0.0,2.0,88,0.00,,FEW,0.00,0.00,VWS V14.01,2013-07-21 09:53:00,
2013-07-21 05:54:00,82.1,78.2,30.05,SE,126,1.0,2.0,88,0.00,,FEW,0.00,0.00,VWS V14.01,2013-07-21 09:54:00,
2013-07-21 05:56:00,82.1,78.2,30.05,East,92,1.0,5.0,88,0.00,,FEW,0.00,0.00,VWS V14.01,2013-07-21 09:56:00,
2013-07-21 05:58:00,82.1,78.2,30.05,SE,126,2.0,5.0,88,0.00,,FEW,0.00,0.00,VWS V14.01,2013-07-21 09:58:00,
2013-07-21 05:59:00,82.1,78.2,30.05,SE,125,0.0,5.0,88,0.00,,FEW,0.00,0.00,VWS V14.01,2013-07-21 09:59:00,
2013-07-21 06:00:00,82.1,78.2,30.05,SE,132,0.0,5.0,88,0.00,,FEW,0.00,0.00,VWS V14.01,2013-07-21 10:00:00,
2013-07-21 06:01:00,82.1,78.2,30.05,SE,134,2.0,5.0,88,0.00,,FEW,0.00,0.00,VWS V14.01,2013-07-21 10:01:00,
2013-07-21 06:03:00,82.1,78.2,30.05,SE,126,2.0,2.0,88,0.00,,FEW,0.00,0.00,VWS V14.01,2013-07-21 10:03:00,
2013-07-21 06:04:00,82.1,78.2,30.05,SE,124,1.0,2.0,88,0.00,,FEW,0.00,0.00,VWS V14.01,2013-07-21 10:04:00,
2013-07-21 06:05:00,82.1,78.2,30.05,ESE,121,2.0,2.0,88,0.00,,FEW,0.00,0.00,VWS V14.01,2013-07-21 10:05:00,
2013-07-21 06:06:00,82.1,78.2,30.05,SE,142,5.0,5.0,88,0.00,,FEW,0.00,0.00,VWS V14.01,2013-07-21 10:06:00,
2013-07-21 06:08:00,82.1,78.2,30.05,SSE,154,4.0,7.0,88,0.00,,FEW,0.00,0.00,VWS V14.01,2013-07-21 10:08:00,
2013-07-21 06:09:00,82.0,78.1,30.05,ESE,121,2.0,7.0,88,0.00,,FEW,0.00,0.00,VWS V14.01,2013-07-21 10:09:00,
2013-07-21 06:10:00,82.0,78.1,30.05,SSE,150,6.0,7.0,88,0.00,,FEW,0.00,0.00,VWS V14.01,2013-07-21 10:10:00,
2013-07-21 06:11:00,82.0,78.1,30.05,SSE,159,3.0,7.0,88,0.00,,FEW,0.00,0.00,VWS V14.01,2013-07-21 10:11:00,
2013-07-21 06:13:00,82.0,78.1,30.05,SE,136,3.0,4.0,88,0.00,,FEW,0.00,0.00,VWS V14.01,2013-07-21 10:13:00,
2013-07-21 06:14:00,82.0,78.1,30.05,SE,136,2.0,4.0,88,0.00,,FEW,0.00,0.00,VWS V14.01,2013-07-21 10:14:00,
2013-07-21 06:16:00,82.0,78.1,30.05,ESE,112,3.0,4.0,88,0.00,,FEW,0.00,0.00,VWS V14.01,2013-07-21 10:16:00,
2013-07-21 06:18:00,82.0,78.1,30.05,SE,139,3.0,4.0,88,0.00,,FEW,0.00,0.00,VWS V14.01,2013-07-21 10:18:00,
2013-07-21 06:19:00,82.0,78.1,30.05,SE,131,2.0,4.0,88,0.00,,FEW,0.00,0.00,VWS V14.01,2013-07-21 10:19:00,
2013-07-21 06:21:00,82.0,78.1,30.05,SE,128,0.0,4.0,88,0.00,,FEW,0.00,0.00,VWS V14.01,2013-07-21 10:21:00,
2013-07-21 06:23:00,82.0,78.1,30.05,ESE,117,0.0,4.0,88,0.00,,FEW,0.00,0.00,VWS V14.01,2013-07-21 10:23:00,
2013-07-21 06:24:00,82.1,78.2,30.05,SE,127,3.0,4.0,88,0.00,,FEW,0.00,0.00,VWS V14.01,2013-07-21 10:24:00,
2013-07-21 06:26:00,82.0,78.1,30.05,SE,144,2.0,4.0,88,0.00,,FEW,0.00,0.00,VWS V14.01,2013-07-21 10:26:00,
2013-07-21 06:28:00,82.0,78.1,30.05,ESE,123,2.0,4.0,88,0.00,,FEW,0.00,0.00,VWS V14.01,2013-07-21 10:28:00,
2013-07-21 06:30:00,82.0,78.1,30.05,ESE,123,0.0,4.0,88,0.00,,FEW,0.00,0.00,VWS V14.01,2013-07-21 10:30:00,
2013-07-21 06:31:00,82.0,78.1,30.05,ESE,123,0.0,4.0,88,0.00,,FEW,0.00,0.00,VWS V14.01,2013-07-21 10:31:00,
2013-07-21 06:33:00,82.0,78.1,30.06,SE,139,2.0,2.0,88,0.00,,FEW,0.00,0.00,VWS V14.01,2013-07-21 10:33:00,
2013-07-21 06:35:00,82.0,78.1,30.06,ESE,121,1.0,3.0,88,0.00,,FEW,0.00,0.00,VWS V14.01,2013-07-21 10:35:00,
2013-07-21 06:36:00,82.0,78.1,30.06,SE,128,0.0,3.0,88,0.00,,FEW,0.00,0.00,VWS V14.01,2013-07-21 10:36:00,
2013-07-21 06:38:00,82.0,78.1,30.06,East,84,0.0,3.0,88,0.00,,FEW,0.00,0.00,VWS V14.01,2013-07-21 10:38:00,
2013-07-21 06:40:00,82.0,78.1,30.06,ESE,117,0.0,3.0,88,0.00,,FEW,0.00,0.00,VWS V14.01,2013-07-21 10:40:00,
2013-07-21 06:41:00,82.0,78.1,30.06,ESE,117,0.0,3.0,88,0.00,,FEW,0.00,0.00,VWS V14.01,2013-07-21 10:41:00,
2013-07-21 06:42:00,82.0,78.1,30.06,ESE,117,2.0,3.0,88,0.00,,FEW,0.00,0.00,VWS V14.01,2013-07-21 10:42:00,
2013-07-21 06:43:00,82.0,78.1,30.06,SE,135,0.0,2.0,88,0.00,,FEW,0.00,0.00,VWS V14.01,2013-07-21 10:43:00,
2013-07-21 06:44:00,82.0,78.1,30.06,SE,142,2.0,2.0,88,0.00,,FEW,0.00,0.00,VWS V14.01,2013-07-21 10:44:00,
2013-07-21 06:45:00,82.0,78.1,30.06,SE,136,1.0,3.0,88,0.00,,FEW,0.00,0.00,VWS V14.01,2013-07-21 10:45:00,
2013-07-21 06:46:00,82.0,78.1,30.07,SE,127,3.0,3.0,88,0.00,,FEW,0.00,0.00,VWS V14.01,2013-07-21 10:46:00,
2013-07-21 06:47:00,82.0,78.1,30.07,SE,132,3.0,3.0,88,0.00,,FEW,0.00,0.00,VWS V14.01,2013-07-21 10:47:00,
2013-07-21 06:48:00,82.0,78.1,30.07,SSE,155,1.0,3.0,88,0.00,,FEW,0.00,0.00,VWS V14.01,2013-07-21 10:48:00,
2013-07-21 06:49:00,82.0,78.1,30.07,SSE,155,2.0,3.0,88,0.00,,FEW,0.00,0.00,VWS V14.01,2013-07-21 10:49:00,
2013-07-21 06:50:00,82.0,78.1,30.07,SE,142,3.0,4.0,88,0.00,,FEW,0.00,0.00,VWS V14.01,2013-07-21 10:50:00,
2013-07-21 06:51:00,82.0,78.1,30.07,SE,132,3.0,4.0,88,0.00,,FEW,0.00,0.00,VWS V14.01,2013-07-21 10:51:00,
2013-07-21 06:52:00,82.0,78.1,30.07,SE,127,5.0,5.0,88,0.00,,FEW,0.00,0.00,VWS V14.01,2013-07-21 10:52:00,
2013-07-21 06:53:00,82.0,78.1,30.07,ESE,108,0.0,5.0,88,0.00,,FEW,0.00,5.00,VWS V14.01,2013-07-21 10:53:00,
2013-07-21 06:54:00,82.0,78.1,30.07,ESE,108,2.0,5.0,88,0.00,,FEW,0.00,5.00,VWS V14.01,2013-07-21 10:54:00,
2013-07-21 06:55:00,82.0,78.1,30.07,SE,133,2.0,5.0,88,0.00,,FEW,0.00,7.00,VWS V14.01,2013-07-21 10:55:00,
2013-07-21 06:57:00,81.9,78.0,30.07,ESE,121,3.0,5.0,88,0.00,,FEW,0.00,7.00,VWS V14.01,2013-07-21 10:57:00,
2013-07-21 06:59:00,81.9,78.0,30.07,SE,136,2.0,5.0,88,0.00,,FEW,0.00,9.00,VWS V14.01,2013-07-21 10:59:00,
2013-07-21 07:01:00,81.9,78.0,30.07,SE,144,4.0,7.0,88,0.00,,FEW,0.00,11.00,VWS V14.01,2013-07-21 11:01:00,
2013-07-21 07:02:00,82.0,78.1,30.07,SE,132,1.0,2.0,88,0.00,,FEW,0.00,12.00,VWS V14.01,2013-07-21 11:02:00,
2013-07-21 07:03:00,81.9,78.0,30.07,SE,128,2.0,2.0,88,0.00,,FEW,0.00,12.00,VWS V14.01,2013-07-21 11:03:00,
2013-07-21 07:04:00,82.0,78.1,30.07,SE,146,2.0,3.0,88,0.00,,FEW,0.00,12.00,VWS V14.01,2013-07-21 11:04:00,
2013-07-21 07:06:00,82.0,78.1,30.07,SSE,162,2.0,5.0,88,0.00,,FEW,0.00,12.00,VWS V14.01,2013-07-21 11:06:00,
2013-07-21 07:08:00,82.0,78.1,30.07,ESE,120,3.0,5.0,88,0.00,,FEW,0.00,14.00,VWS V14.01,2013-07-21 11:08:00,
2013-07-21 07:09:00,82.0,78.1,30.07,SSE,154,2.0,5.0,88,0.00,,FEW,0.00,16.00,VWS V14.01,2013-07-21 11:09:00,
2013-07-21 07:11:00,82.0,78.1,30.07,SE,143,3.0,5.0,88,0.00,,FEW,0.00,18.00,VWS V14.01,2013-07-21 11:11:00,
2013-07-21 07:13:00,82.1,78.2,30.07,ESE,121,0.0,1.0,88,0.00,,FEW,0.00,18.00,VWS V14.01,2013-07-21 11:13:00,
2013-07-21 07:14:00,82.1,78.2,30.07,SE,140,2.0,3.0,88,0.00,,FEW,0.00,18.00,VWS V14.01,2013-07-21 11:14:00,
2013-07-21 07:16:00,82.1,78.2,30.07,ESE,121,3.0,3.0,88,0.00,,FEW,0.00,19.00,VWS V14.01,2013-07-21 11:16:00,
2013-07-21 07:18:00,82.1,78.2,30.07,ESE,118,1.0,3.0,88,0.00,,FEW,0.00,19.00,VWS V14.01,2013-07-21 11:18:00,
2013-07-21 07:19:00,82.1,78.2,30.07,SE,132,2.0,4.0,88,0.00,,FEW,0.00,19.00,VWS V14.01,2013-07-21 11:19:00,
2013-07-21 07:21:00,82.1,78.2,30.07,ESE,123,2.0,5.0,88,0.00,,FEW,0.00,19.00,VWS V14.01,2013-07-21 11:21:00,
2013-07-21 07:23:00,82.1,78.2,30.07,ESE,104,3.0,5.0,88,0.00,,FEW,0.00,21.00,VWS V14.01,2013-07-21 11:23:00,
2013-07-21 07:24:00,82.1,78.2,30.07,SE,131,0.0,5.0,88,0.00,,FEW,0.00,23.00,VWS V14.01,2013-07-21 11:24:00,
2013-07-21 07:25:00,82.1,78.2,30.07,SE,132,2.0,5.0,88,0.00,,FEW,0.00,23.00,VWS V14.01,2013-07-21 11:25:00,
2013-07-21 07:26:00,82.1,78.2,30.07,SE,126,0.0,5.0,88,0.00,,FEW,0.00,23.00,VWS V14.01,2013-07-21 11:26:00,
2013-07-21 07:28:00,82.1,78.2,30.07,ESE,120,2.0,5.0,88,0.00,,FEW,0.00,28.00,VWS V14.01,2013-07-21 11:28:00,
2013-07-21 07:29:00,82.2,78.3,30.07,SSE,155,6.0,6.0,88,0.00,,FEW,0.00,32.00,VWS V14.01,2013-07-21 11:29:00,
2013-07-21 07:30:00,82.2,78.3,30.07,ESE,109,2.0,6.0,88,0.00,,FEW,0.00,33.00,VWS V14.01,2013-07-21 11:30:00,
2013-07-21 07:31:00,82.2,78.3,30.07,ESE,114,5.0,6.0,88,0.00,,FEW,0.00,37.00,VWS V14.01,2013-07-21 11:31:00,
2013-07-21 07:33:00,82.2,78.3,30.07,ESE,109,3.0,4.0,88,0.00,,FEW,0.00,42.00,VWS V14.01,2013-07-21 11:33:00,
2013-07-21 07:34:00,82.2,78.3,30.07,ESE,115,0.0,4.0,88,0.00,,FEW,0.00,51.00,VWS V14.01,2013-07-21 11:34:00,
2013-07-21 07:36:00,82.2,78.3,30.07,East,89,2.0,4.0,88,0.00,,FEW,0.00,49.00,VWS V14.01,2013-07-21 11:36:00,
2013-07-21 07:38:00,82.3,78.4,30.07,East,82,5.0,5.0,88,0.00,,FEW,0.00,67.00,VWS V14.01,2013-07-21 11:38:00,
2013-07-21 07:40:00,82.3,78.4,30.07,SE,132,2.0,5.0,88,0.00,,FEW,0.00,69.00,VWS V14.01,2013-07-21 11:40:00,
2013-07-21 07:41:00,82.3,78.4,30.07,ESE,120,2.0,5.0,88,0.00,,FEW,0.00,69.00,VWS V14.01,2013-07-21 11:41:00,
2013-07-21 07:42:00,82.3,78.4,30.07,SE,142,5.0,6.0,88,0.00,,FEW,0.00,67.00,VWS V14.01,2013-07-21 11:42:00,
2013-07-21 07:43:00,82.3,78.4,30.07,ESE,112,3.0,6.0,88,0.00,,FEW,0.00,72.00,VWS V14.01,2013-07-21 11:43:00,
2013-07-21 07:45:00,82.3,78.4,30.07,ESE,111,2.0,6.0,88,0.00,,FEW,0.00,88.00,VWS V14.01,2013-07-21 11:45:00,
2013-07-21 07:46:00,82.3,78.4,30.07,SE,139,1.0,6.0,88,0.00,,FEW,0.00,88.00,VWS V14.01,2013-07-21 11:46:00,
2013-07-21 07:47:00,82.4,78.5,30.08,SE,136,4.0,6.0,88,0.00,,FEW,0.00,93.00,VWS V14.01,2013-07-21 11:47:00,
2013-07-21 07:48:00,82.4,78.5,30.08,ESE,111,3.0,6.0,88,0.00,,FEW,0.00,95.00,VWS V14.01,2013-07-21 11:48:00,
2013-07-21 07:49:00,82.4,78.5,30.08,SSE,150,1.0,6.0,88,0.00,,FEW,0.00,98.00,VWS V14.01,2013-07-21 11:49:00,
2013-07-21 07:50:00,82.5,78.6,30.08,SE,135,5.0,6.0,88,0.00,,FEW,0.00,102.00,VWS V14.01,2013-07-21 11:50:00,
2013-07-21 07:51:00,82.5,78.6,30.08,SE,142,4.0,6.0,88,0.00,,FEW,0.00,100.00,VWS V14.01,2013-07-21 11:51:00,
2013-07-21 07:52:00,82.6,78.7,30.08,SSE,154,4.0,4.0,88,0.00,,FEW,0.00,102.00,VWS V14.01,2013-07-21 11:52:00,
2013-07-21 07:54:00,82.6,78.7,30.08,ESE,116,0.0,4.0,88,0.00,,FEW,0.00,97.00,VWS V14.01,2013-07-21 11:54:00,
2013-07-21 07:55:00,82.7,78.8,30.08,ESE,117,1.0,4.0,88,0.00,,FEW,0.00,91.00,VWS V14.01,2013-07-21 11:55:00,
2013-07-21 07:56:00,82.7,78.8,30.08,SE,138,6.0,6.0,88,0.00,,FEW,0.00,77.00,VWS V14.01,2013-07-21 11:56:00,
2013-07-21 07:57:00,82.8,78.5,30.08,SE,124,2.0,6.0,87,0.00,,FEW,0.00,69.00,VWS V14.01,2013-07-21 11:57:00,
2013-07-21 07:59:00,82.8,78.5,30.08,ESE,109,3.0,7.0,87,0.00,,FEW,0.00,54.00,VWS V14.01,2013-07-21 11:59:00,
2013-07-21 08:00:00,82.8,78.5,30.08,SE,136,2.0,7.0,87,0.00,,FEW,0.00,54.00,VWS V14.01,2013-07-21 12:00:00,
2013-07-21 08:01:00,82.8,78.5,30.08,SE,129,2.0,7.0,87,0.00,,FEW,0.00,56.00,VWS V14.01,2013-07-21 12:01:00,
2013-07-21 08:02:00,82.8,78.5,30.08,SE,126,1.0,1.0,87,0.00,,FEW,0.00,58.00,VWS V14.01,2013-07-21 12:02:00,
2013-07-21 08:04:00,82.9,78.6,30.08,ESE,115,3.0,3.0,87,0.00,,FEW,0.00,62.00,VWS V14.01,2013-07-21 12:04:00,
2013-07-21 08:05:00,82.9,78.6,30.08,ESE,111,5.0,5.0,87,0.00,,FEW,0.00,74.00,VWS V14.01,2013-07-21 12:05:00,
2013-07-21 08:06:00,82.9,78.6,30.08,ESE,116,3.0,5.0,87,0.00,,FEW,0.00,81.00,VWS V14.01,2013-07-21 12:06:00,
2013-07-21 08:08:00,82.9,78.6,30.08,South,178,3.0,5.0,87,0.00,,FEW,0.00,84.00,VWS V14.01,2013-07-21 12:08:00,
2013-07-21 08:09:00,82.9,78.6,30.08,ENE,74,1.0,6.0,87,0.00,,FEW,0.00,84.00,VWS V14.01,2013-07-21 12:09:00,
2013-07-21 08:10:00,82.9,78.6,30.08,ESE,119,3.0,6.0,87,0.00,,FEW,0.00,77.00,VWS V14.01,2013-07-21 12:10:00,
2013-07-21 08:11:00,82.9,78.6,30.08,ESE,119,2.0,6.0,87,0.00,,FEW,0.00,72.00,VWS V14.01,2013-07-21 12:11:00,
2013-07-21 08:12:00,82.9,78.6,30.08,ESE,115,0.0,6.0,87,0.00,,FEW,0.00,70.00,VWS V14.01,2013-07-21 12:12:00,
2013-07-21 08:13:00,82.9,78.6,30.08,SE,126,1.0,3.0,87,0.00,,FEW,0.00,77.00,VWS V14.01,2013-07-21 12:13:00,
2013-07-21 08:14:00,82.9,78.6,30.08,ESE,110,4.0,4.0,87,0.00,,FEW,0.00,88.00,VWS V14.01,2013-07-21 12:14:00,
2013-07-21 08:15:00,83.0,78.7,30.08,SE,132,1.0,4.0,87,0.00,,FEW,0.00,88.00,VWS V14.01,2013-07-21 12:15:00,
2013-07-21 08:16:00,83.0,78.7,30.08,SE,139,1.0,4.0,87,0.00,,FEW,0.00,97.00,VWS V14.01,2013-07-21 12:16:00,
2013-07-21 08:17:00,83.0,78.7,30.09,SE,128,1.0,4.0,87,0.00,,FEW,0.00,86.00,VWS V14.01,2013-07-21 12:17:00,
2013-07-21 08:18:00,83.0,78.7,30.09,SE,126,1.0,4.0,87,0.00,,FEW,0.00,84.00,VWS V14.01,2013-07-21 12:18:00,
2013-07-21 08:19:00,83.1,78.8,30.09,SE,126,4.0,4.0,87,0.00,,FEW,0.00,90.00,VWS V14.01,2013-07-21 12:19:00,
2013-07-21 08:20:00,83.1,78.8,30.09,ESE,107,2.0,4.0,87,0.00,,FEW,0.00,111.00,VWS V14.01,2013-07-21 12:20:00,
2013-07-21 08:21:00,83.1,78.8,30.09,SE,146,1.0,4.0,87,0.00,,FEW,0.00,118.00,VWS V14.01,2013-07-21 12:21:00,
2013-07-21 08:22:00,83.1,78.8,30.09,SE,133,0.0,4.0,87,0.00,,FEW,0.00,160.00,VWS V14.01,2013-07-21 12:22:00,
2013-07-21 08:23:00,83.1,78.8,30.09,SE,124,5.0,5.0,87,0.00,,FEW,0.00,213.00,VWS V14.01,2013-07-21 12:23:00,
2013-07-21 08:24:00,83.1,78.8,30.09,ESE,117,1.0,5.0,87,0.00,,FEW,0.00,199.00,VWS V14.01,2013-07-21 12:24:00,
2013-07-21 08:25:00,83.2,78.9,30.09,SE,132,1.0,5.0,87,0.00,,FEW,0.00,199.00,VWS V14.01,2013-07-21 12:25:00,
2013-07-21 08:26:00,83.2,78.9,30.09,ESE,110,3.0,5.0,87,0.00,,FEW,0.00,204.00,VWS V14.01,2013-07-21 12:26:00,
2013-07-21 08:27:00,83.2,78.9,30.09,SSE,147,0.0,5.0,87,0.00,,FEW,0.00,179.00,VWS V14.01,2013-07-21 12:27:00,
2013-07-21 08:28:00,83.3,79.0,30.09,ESE,123,1.0,5.0,87,0.00,,FEW,0.00,155.00,VWS V14.01,2013-07-21 12:28:00,
2013-07-21 08:29:00,83.3,79.0,30.09,SE,134,2.0,5.0,87,0.00,,FEW,0.00,134.00,VWS V14.01,2013-07-21 12:29:00,
2013-07-21 08:30:00,83.3,79.0,30.09,SE,132,1.0,5.0,87,0.00,,FEW,0.00,134.00,VWS V14.01,2013-07-21 12:30:00,
2013-07-21 08:31:00,83.4,79.1,30.09,SE,125,0.0,5.0,87,0.00,,FEW,0.00,97.00,VWS V14.01,2013-07-21 12:31:00,
2013-07-21 08:32:00,83.4,79.1,30.09,SSE,151,3.0,5.0,87,0.00,,FEW,0.00,88.00,VWS V14.01,2013-07-21 12:32:00,
2013-07-21 08:33:00,83.5,78.9,30.09,SSE,155,2.0,2.0,86,0.00,,FEW,0.00,88.00,VWS V14.01,2013-07-21 12:33:00,
2013-07-21 08:34:00,83.5,78.9,30.09,ESE,121,1.0,2.0,86,0.00,,FEW,0.00,88.00,VWS V14.01,2013-07-21 12:34:00,
2013-07-21 08:36:00,83.5,78.9,30.09,SE,124,2.0,2.0,86,0.00,,FEW,0.00,90.00,VWS V14.01,2013-07-21 12:36:00,
2013-07-21 08:37:00,83.5,78.9,30.09,ESE,123,0.0,2.0,86,0.00,,FEW,0.00,104.00,VWS V14.01,2013-07-21 12:37:00,
2013-07-21 08:38:00,83.5,78.9,30.09,South,174,4.0,4.0,86,0.00,,FEW,0.00,118.00,VWS V14.01,2013-07-21 12:38:00,
2013-07-21 08:39:00,83.6,79.0,30.09,SE,140,4.0,4.0,86,0.00,,FEW,0.00,165.00,VWS V14.01,2013-07-21 12:39:00,
2013-07-21 08:41:00,83.6,79.0,30.09,ESE,113,2.0,4.0,86,0.00,,FEW,0.00,165.00,VWS V14.01,2013-07-21 12:41:00,
2013-07-21 08:42:00,83.6,79.0,30.09,ESE,121,1.0,5.0,86,0.00,,FEW,0.00,155.00,VWS V14.01,2013-07-21 12:42:00,
2013-07-21 08:43:00,83.6,79.0,30.09,SE,126,4.0,4.0,86,0.00,,FEW,0.00,139.00,VWS V14.01,2013-07-21 12:43:00,
2013-07-21 08:45:00,83.6,79.0,30.09,ESE,119,2.0,4.0,86,0.00,,FEW,0.00,118.00,VWS V14.01,2013-07-21 12:45:00,
2013-07-21 08:46:00,83.6,79.0,30.09,SE,128,3.0,4.0,86,0.00,,FEW,0.00,114.00,VWS V14.01,2013-07-21 12:46:00,
2013-07-21 08:47:00,83.6,79.0,30.09,ESE,115,4.0,6.0,86,0.00,,FEW,0.00,113.00,VWS V14.01,2013-07-21 12:47:00,
2013-07-21 08:48:00,83.6,79.0,30.09,SE,139,3.0,6.0,86,0.00,,FEW,0.00,111.00,VWS V14.01,2013-07-21 12:48:00,
2013-07-21 08:50:00,83.6,79.0,30.09,SE,128,1.0,6.0,86,0.00,,FEW,0.00,111.00,VWS V14.01,2013-07-21 12:50:00,
2013-07-21 08:51:00,83.6,79.0,30.09,SE,128,0.0,6.0,86,0.00,,FEW,0.00,107.00,VWS V14.01,2013-07-21 12:51:00,
2013-07-21 08:52:00,83.6,79.0,30.09,SE,128,0.0,6.0,86,0.00,,FEW,0.00,107.00,VWS V14.01,2013-07-21 12:52:00,
2013-07-21 08:55:00,83.7,79.1,30.09,ESE,118,0.0,3.0,86,0.00,,FEW,0.00,97.00,VWS V14.01,2013-07-21 12:55:00,
2013-07-21 08:56:00,83.7,79.1,30.09,SE,126,0.0,3.0,86,0.00,,FEW,0.00,84.00,VWS V14.01,2013-07-21 12:56:00,
2013-07-21 08:57:00,83.7,79.1,30.09,SE,126,0.0,3.0,86,0.00,,FEW,0.00,84.00,VWS V14.01,2013-07-21 12:57:00,
2013-07-21 09:00:00,83.7,79.1,30.09,ESE,123,1.0,7.0,86,0.00,,FEW,0.00,67.00,VWS V14.01,2013-07-21 13:00:00,
2013-07-21 09:02:00,83.7,79.1,30.09,ESE,118,0.0,7.0,86,0.00,,FEW,0.00,76.00,VWS V14.01,2013-07-21 13:02:00,
2013-07-21 09:05:00,83.7,79.1,30.09,ESE,108,3.0,3.0,86,0.00,,FEW,0.00,88.00,VWS V14.01,2013-07-21 13:05:00,
2013-07-21 09:07:00,83.8,79.2,30.09,ESE,103,2.0,4.0,86,0.00,,FEW,0.00,86.00,VWS V14.01,2013-07-21 13:07:00,
2013-07-21 09:10:00,83.8,79.5,30.09,ESE,102,2.0,4.0,87,0.00,,FEW,0.00,100.00,VWS V14.01,2013-07-21 13:10:00,
2013-07-21 09:11:00,83.8,79.5,30.09,ESE,103,1.0,4.0,87,0.00,,FEW,0.00,102.00,VWS V14.01,2013-07-21 13:11:00,
2013-07-21 09:12:00,83.8,79.5,30.09,ESE,116,1.0,4.0,87,0.00,,FEW,0.00,104.00,VWS V14.01,2013-07-21 13:12:00,
2013-07-21 09:15:00,83.8,79.2,30.09,SE,124,0.0,3.0,86,0.00,,FEW,0.00,130.00,VWS V14.01,2013-07-21 13:15:00,
2013-07-21 09:16:00,83.8,79.2,30.09,SE,131,2.0,3.0,86,0.00,,FEW,0.00,130.00,VWS V14.01,2013-07-21 13:16:00,
2013-07-21 09:17:00,83.8,79.2,30.10,SE,124,3.0,3.0,86,0.00,,FEW,0.00,132.00,VWS V14.01,2013-07-21 13:17:00,
2013-07-21 09:20:00,83.8,79.2,30.10,SE,136,2.0,3.0,86,0.00,,FEW,0.00,134.00,VWS V14.01,2013-07-21 13:20:00,
2013-07-21 09:21:00,83.8,79.2,30.10,SE,134,0.0,3.0,86,0.00,,FEW,0.00,127.00,VWS V14.01,2013-07-21 13:21:00,
2013-07-21 09:22:00,83.8,79.2,30.10,SE,142,4.0,4.0,86,0.00,,FEW,0.00,114.00,VWS V14.01,2013-07-21 13:22:00,
2013-07-21 09:25:00,83.8,79.2,30.10,ESE,123,2.0,5.0,86,0.00,,FEW,0.00,134.00,VWS V14.01,2013-07-21 13:25:00,
2013-07-21 09:26:00,83.8,79.2,30.10,SE,126,3.0,5.0,86,0.00,,FEW,0.00,128.00,VWS V14.01,2013-07-21 13:26:00,
2013-07-21 09:27:00,83.8,79.2,30.10,ESE,105,3.0,5.0,86,0.00,,FEW,0.00,120.00,VWS V14.01,2013-07-21 13:27:00,
2013-07-21 09:31:00,83.9,79.3,30.10,SE,145,5.0,5.0,86,0.00,,FEW,0.00,176.00,VWS V14.01,2013-07-21 13:31:00,
2013-07-21 09:32:00,83.8,79.2,30.10,ESE,123,0.0,1.0,86,0.00,,FEW,0.00,174.00,VWS V14.01,2013-07-21 13:32:00,
2013-07-21 09:36:00,83.9,79.3,30.10,ESE,119,2.0,3.0,86,0.00,,FEW,0.00,158.00,VWS V14.01,2013-07-21 13:36:00,
2013-07-21 09:37:00,83.9,79.3,30.10,ESE,112,1.0,3.0,86,0.00,,FEW,0.00,158.00,VWS V14.01,2013-07-21 13:37:00,
2013-07-21 09:38:00,83.9,79.3,30.10,SE,125,1.0,3.0,86,0.00,,FEW,0.00,158.00,VWS V14.01,2013-07-21 13:38:00,
2013-07-21 09:41:00,83.9,78.9,30.10,ESE,117,1.0,5.0,85,0.00,,FEW,0.00,183.00,VWS V14.01,2013-07-21 13:41:00,
2013-07-21 09:42:00,83.9,78.9,30.10,ESE,123,2.0,4.0,85,0.00,,FEW,0.00,181.00,VWS V14.01,2013-07-21 13:42:00,
2013-07-21 09:43:00,83.9,78.9,30.10,ESE,123,1.0,4.0,85,0.00,,FEW,0.00,181.00,VWS V14.01,2013-07-21 13:43:00,
2013-07-21 09:46:00,84.1,79.5,30.10,ESE,121,1.0,4.0,86,0.00,,FEW,0.00,531.00,VWS V14.01,2013-07-21 13:46:00,
2013-07-21 09:47:00,84.1,79.5,30.11,SE,129,4.0,4.0,86,0.00,,FEW,0.00,621.00,VWS V14.01,2013-07-21 13:47:00,
2013-07-21 09:48:00,84.2,79.6,30.11,SE,127,3.0,4.0,86,0.00,,FEW,0.00,621.00,VWS V14.01,2013-07-21 13:48:00,
2013-07-21 09:51:00,84.5,79.5,30.11,SE,138,6.0,6.0,85,0.00,,FEW,0.00,555.00,VWS V14.01,2013-07-21 13:51:00,
2013-07-21 09:52:00,84.6,79.6,30.11,SE,130,4.0,6.0,85,0.00,,FEW,0.00,555.00,VWS V14.01,2013-07-21 13:52:00,
2013-07-21 09:53:00,84.7,79.7,30.11,SSE,154,2.0,3.0,85,0.00,,FEW,0.00,246.00,VWS V14.01,2013-07-21 13:53:00,
2013-07-21 09:57:00,85.1,79.7,30.11,ESE,108,1.0,5.0,84,0.00,,FEW,0.00,338.00,VWS V14.01,2013-07-21 13:57:00,
2013-07-21 09:58:00,85.2,79.8,30.11,NE,50,1.0,5.0,84,0.00,,FEW,0.00,338.00,VWS V14.01,2013-07-21 13:58:00,
2013-07-21 10:02:00,85.7,79.9,30.11,ESE,105,3.0,6.0,83,0.00,,FEW,0.00,628.00,VWS V14.01,2013-07-21 14:02:00,
2013-07-21 10:03:00,85.7,79.6,30.11,ESE,119,5.0,7.0,82,0.00,,FEW,0.00,628.00,VWS V14.01,2013-07-21 14:03:00,
2013-07-21 10:04:00,85.8,79.7,30.11,SE,136,5.0,7.0,82,0.00,,FEW,0.00,628.00,VWS V14.01,2013-07-21 14:04:00,
2013-07-21 10:07:00,86.1,79.6,30.11,SE,144,5.0,7.0,81,0.00,,FEW,0.00,633.00,VWS V14.01,2013-07-21 14:07:00,
2013-07-21 10:08:00,86.1,79.6,30.11,ESE,113,8.0,8.0,81,0.00,,FEW,0.00,631.00,VWS V14.01,2013-07-21 14:08:00,
2013-07-21 10:09:00,86.2,79.3,30.11,SSE,158,6.0,8.0,80,0.00,,FEW,0.00,626.00,VWS V14.01,2013-07-21 14:09:00,
2013-07-21 10:13:00,86.6,79.7,30.11,SSE,163,5.0,5.0,80,0.00,,FEW,0.00,640.00,VWS V14.01,2013-07-21 14:13:00,
2013-07-21 10:14:00,86.7,79.4,30.11,South,170,4.0,8.0,79,0.00,,FEW,0.00,635.00,VWS V14.01,2013-07-21 14:14:00,
2013-07-21 10:18:00,86.9,79.6,30.11,SE,130,2.0,8.0,79,0.00,,FEW,0.00,622.00,VWS V14.01,2013-07-21 14:18:00,
2013-07-21 10:19:00,87.0,79.7,30.11,ESE,119,3.0,8.0,79,0.00,,FEW,0.00,619.00,VWS V14.01,2013-07-21 14:19:00,
2013-07-21 10:23:00,87.1,79.4,30.11,SSE,160,5.0,5.0,78,0.00,,FEW,0.00,570.00,VWS V14.01,2013-07-21 14:23:00,
2013-07-21 10:24:00,87.1,79.4,30.11,East,97,7.0,7.0,78,0.00,,FEW,0.00,638.00,VWS V14.01,2013-07-21 14:24:00,
2013-07-21 10:28:00,87.3,79.6,30.11,ESE,109,1.0,7.0,78,0.00,,FEW,0.00,679.00,VWS V14.01,2013-07-21 14:28:00,
2013-07-21 10:29:00,87.4,79.7,30.11,ESE,110,4.0,7.0,78,0.00,,FEW,0.00,679.00,VWS V14.01,2013-07-21 14:29:00,
2013-07-21 10:33:00,87.7,79.6,30.11,ESE,117,3.0,7.0,77,0.00,,FEW,0.00,308.00,VWS V14.01,2013-07-21 14:33:00,
2013-07-21 10:34:00,87.6,79.5,30.11,SE,144,2.0,7.0,77,0.00,,FEW,0.00,315.00,VWS V14.01,2013-07-21 14:34:00,
2013-07-21 10:38:00,87.4,79.3,30.11,ESE,117,4.0,7.0,77,0.00,,FEW,0.00,345.00,VWS V14.01,2013-07-21 14:38:00,
2013-07-21 10:39:00,87.4,79.3,30.11,ESE,121,4.0,7.0,77,0.00,,FEW,0.00,345.00,VWS V14.01,2013-07-21 14:39:00,
2013-07-21 10:40:00,87.3,79.2,30.11,SE,124,4.0,7.0,77,0.00,,FEW,0.00,443.00,VWS V14.01,2013-07-21 14:40:00,
2013-07-21 10:43:00,87.1,79.4,30.11,ESE,115,3.0,5.0,78,0.00,,FEW,0.00,431.00,VWS V14.01,2013-07-21 14:43:00,
2013-07-21 10:44:00,87.1,79.4,30.11,East,101,2.0,5.0,78,0.00,,FEW,0.00,431.00,VWS V14.01,2013-07-21 14:44:00,
2013-07-21 10:45:00,87.0,79.3,30.11,SSE,155,1.0,5.0,78,0.00,,FEW,0.00,461.00,VWS V14.01,2013-07-21 14:45:00,
2013-07-21 10:49:00,86.9,79.2,30.11,SSE,165,2.0,6.0,78,0.00,,FEW,0.00,457.00,VWS V14.01,2013-07-21 14:49:00,
2013-07-21 10:50:00,86.9,79.6,30.11,SE,132,6.0,7.0,79,0.00,,FEW,0.00,552.00,VWS V14.01,2013-07-21 14:50:00,
2013-07-21 10:54:00,86.9,79.2,30.11,ESE,102,4.0,7.0,78,0.00,,FEW,0.00,480.00,VWS V14.01,2013-07-21 14:54:00,
2013-07-21 10:55:00,86.8,79.5,30.11,SSE,149,3.0,7.0,79,0.00,,FEW,0.00,577.00,VWS V14.01,2013-07-21 14:55:00,
2013-07-21 10:59:00,87.0,79.7,30.11,SE,138,4.0,7.0,79,0.00,,FEW,0.00,448.00,VWS V14.01,2013-07-21 14:59:00,
2013-07-21 11:00:00,87.0,79.3,30.11,ESE,115,3.0,7.0,78,0.00,,FEW,0.00,413.00,VWS V14.01,2013-07-21 15:00:00,
2013-07-21 11:04:00,86.9,79.6,30.11,East,92,2.0,4.0,79,0.00,,FEW,0.00,506.00,VWS V14.01,2013-07-21 15:04:00,
2013-07-21 11:05:00,87.0,79.7,30.11,SE,126,3.0,4.0,79,0.00,,FEW,0.00,406.00,VWS V14.01,2013-07-21 15:05:00,
2013-07-21 11:06:00,87.1,80.2,30.11,ESE,103,2.0,4.0,80,0.00,,FEW,0.00,406.00,VWS V14.01,2013-07-21 15:06:00,
2013-07-21 11:09:00,87.3,79.6,30.11,SSE,151,7.0,8.0,78,0.00,,FEW,0.00,795.00,VWS V14.01,2013-07-21 15:09:00,
2013-07-21 11:10:00,87.3,79.2,30.11,SSE,157,6.0,8.0,77,0.00,,FEW,0.00,795.00,VWS V14.01,2013-07-21 15:10:00,
2013-07-21 11:11:00,87.3,79.2,30.11,ESE,113,2.0,8.0,77,0.00,,FEW,0.00,795.00,VWS V14.01,2013-07-21 15:11:00,
2013-07-21 11:14:00,87.4,79.7,30.11,SE,144,3.0,7.0,78,0.00,,FEW,0.00,875.00,VWS V14.01,2013-07-21 15:14:00,
2013-07-21 11:15:00,87.5,79.8,30.11,SE,126,2.0,7.0,78,0.00,,FEW,0.00,875.00,VWS V14.01,2013-07-21 15:15:00,
2013-07-21 11:16:00,87.5,79.8,30.11,ESE,123,3.0,7.0,78,0.00,,FEW,0.00,875.00,VWS V14.01,2013-07-21 15:16:00,
2013-07-21 11:19:00,88.2,80.5,30.11,ESE,109,1.0,7.0,78,0.00,,FEW,0.00,875.00,VWS V14.01,2013-07-21 15:19:00,
2013-07-21 11:20:00,88.2,80.5,30.11,SE,129,3.0,7.0,78,0.00,,FEW,0.00,875.00,VWS V14.01,2013-07-21 15:20:00,
2013-07-21 11:21:00,88.3,80.2,30.11,ESE,123,4.0,7.0,77,0.00,,FEW,0.00,875.00,VWS V14.01,2013-07-21 15:21:00,
2013-07-21 11:25:00,88.7,80.2,30.11,ESE,116,3.0,5.0,76,0.00,,FEW,0.00,835.00,VWS V14.01,2013-07-21 15:25:00,
2013-07-21 11:26:00,88.8,80.3,30.11,ESE,106,2.0,5.0,76,0.00,,FEW,0.00,828.00,VWS V14.01,2013-07-21 15:26:00,
2013-07-21 11:30:00,89.0,80.1,30.11,ESE,108,4.0,7.0,75,0.00,,FEW,0.00,868.00,VWS V14.01,2013-07-21 15:30:00,
2013-07-21 11:31:00,89.0,80.1,30.11,SSE,163,5.0,7.0,75,0.00,,FEW,0.00,816.00,VWS V14.01,2013-07-21 15:31:00,
2013-07-21 11:35:00,89.0,80.1,30.12,ESE,110,3.0,7.0,75,0.00,,FEW,0.00,455.00,VWS V14.01,2013-07-21 15:35:00,
2013-07-21 11:36:00,88.9,79.9,30.12,SSE,147,5.0,7.0,75,0.00,,FEW,0.00,455.00,VWS V14.01,2013-07-21 15:36:00,
2013-07-21 11:40:00,88.2,79.3,30.12,East,98,5.0,8.0,75,0.00,,FEW,0.00,673.00,VWS V14.01,2013-07-21 15:40:00,
2013-07-21 11:41:00,88.2,79.7,30.12,East,96,3.0,8.0,76,0.00,,FEW,0.00,673.00,VWS V14.01,2013-07-21 15:41:00,
2013-07-21 11:45:00,88.2,80.1,30.12,SSE,155,5.0,5.0,77,0.00,,FEW,0.00,265.00,VWS V14.01,2013-07-21 15:45:00,
2013-07-21 11:46:00,88.2,80.1,30.12,ESE,123,4.0,5.0,77,0.00,,FEW,0.00,436.00,VWS V14.01,2013-07-21 15:46:00,
2013-07-21 11:51:00,88.0,79.9,30.12,SE,142,1.0,8.0,77,0.00,,FEW,0.00,483.00,VWS V14.01,2013-07-21 15:51:00,
2013-07-21 11:52:00,88.1,80.4,30.12,SE,131,3.0,8.0,78,0.00,,FEW,0.00,490.00,VWS V14.01,2013-07-21 15:52:00,
2013-07-21 11:56:00,88.1,80.0,30.12,SE,131,6.0,7.0,77,0.00,,FEW,0.00,396.00,VWS V14.01,2013-07-21 15:56:00,
2013-07-21 11:57:00,88.1,80.0,30.12,SE,138,2.0,7.0,77,0.00,,FEW,0.00,543.00,VWS V14.01,2013-07-21 15:57:00,
2013-07-21 12:01:00,88.1,79.6,30.12,SSE,147,7.0,10.0,76,0.00,,FEW,0.00,1020.00,VWS V14.01,2013-07-21 16:01:00,
2013-07-21 12:02:00,88.1,79.6,30.12,ESE,118,2.0,10.0,76,0.00,,FEW,0.00,1020.00,VWS V14.01,2013-07-21 16:02:00,
2013-07-21 12:06:00,88.1,80.0,30.12,ESE,122,5.0,8.0,77,0.00,,FEW,0.00,671.00,VWS V14.01,2013-07-21 16:06:00,
2013-07-21 12:07:00,88.1,79.6,30.12,South,187,2.0,8.0,76,0.00,,FEW,0.00,671.00,VWS V14.01,2013-07-21 16:07:00,
2013-07-21 12:11:00,87.9,79.8,30.12,SE,126,5.0,11.0,77,0.00,,FEW,0.00,872.00,VWS V14.01,2013-07-21 16:11:00,
2013-07-21 12:12:00,87.9,79.8,30.12,East,101,1.0,11.0,77,0.00,,FEW,0.00,872.00,VWS V14.01,2013-07-21 16:12:00,
2013-07-21 12:16:00,87.9,79.8,30.12,SE,130,3.0,8.0,77,0.00,,FEW,0.00,431.00,VWS V14.01,2013-07-21 16:16:00,
2013-07-21 12:17:00,87.9,80.2,30.11,South,172,6.0,8.0,78,0.00,,FEW,0.00,431.00,VWS V14.01,2013-07-21 16:17:00,
2013-07-21 12:21:00,87.6,79.5,30.11,SE,125,5.0,8.0,77,0.00,,FEW,0.00,677.00,VWS V14.01,2013-07-21 16:21:00,
2013-07-21 12:22:00,87.6,79.9,30.11,SE,134,3.0,8.0,78,0.00,,FEW,0.00,677.00,VWS V14.01,2013-07-21 16:22:00,
2013-07-21 12:26:00,87.7,80.0,30.11,SE,136,2.0,6.0,78,0.00,,FEW,0.00,881.00,VWS V14.01,2013-07-21 16:26:00,
2013-07-21 12:27:00,87.7,80.0,30.11,SE,135,3.0,6.0,78,0.00,,FEW,0.00,881.00,VWS V14.01,2013-07-21 16:27:00,
2013-07-21 12:31:00,88.5,80.4,30.11,SSE,152,5.0,7.0,77,0.00,,FEW,0.00,765.00,VWS V14.01,2013-07-21 16:31:00,
2013-07-21 12:32:00,88.7,80.2,30.11,ESE,105,1.0,7.0,76,0.00,,FEW,0.00,765.00,VWS V14.01,2013-07-21 16:32:00,
2013-07-21 12:36:00,88.7,79.8,30.11,SE,137,6.0,8.0,75,0.00,,FEW,0.00,942.00,VWS V14.01,2013-07-21 16:36:00,
2013-07-21 12:37:00,88.8,79.9,30.11,ESE,118,5.0,8.0,75,0.00,,FEW,0.00,953.00,VWS V14.01,2013-07-21 16:37:00,
2013-07-21 12:38:00,88.8,79.9,30.11,East,98,5.0,8.0,75,0.00,,FEW,0.00,1037.00,VWS V14.01,2013-07-21 16:38:00,
2013-07-21 12:41:00,89.2,80.7,30.11,ESE,123,4.0,8.0,76,0.00,,FEW,0.00,1067.00,VWS V14.01,2013-07-21 16:41:00,
2013-07-21 12:42:00,89.3,80.3,30.11,SE,134,6.0,8.0,75,0.00,,FEW,0.00,1067.00,VWS V14.01,2013-07-21 16:42:00,
2013-07-21 12:43:00,89.3,80.3,30.11,East,93,0.0,5.0,75,0.00,,FEW,0.00,1063.00,VWS V14.01,2013-07-21 16:43:00,
2013-07-21 12:46:00,90.1,80.7,30.11,SE,136,3.0,6.0,74,0.00,,FEW,0.00,1107.00,VWS V14.01,2013-07-21 16:46:00,
2013-07-21 12:47:00,90.1,80.7,30.11,SSE,161,2.0,6.0,74,0.00,,FEW,0.00,882.00,VWS V14.01,2013-07-21 16:47:00,
2013-07-21 12:48:00,90.1,80.7,30.11,SE,137,3.0,7.0,74,0.00,,FEW,0.00,882.00,VWS V14.01,2013-07-21 16:48:00,
2013-07-21 12:51:00,89.9,80.1,30.11,SSE,154,6.0,7.0,73,0.00,,FEW,0.00,657.00,VWS V14.01,2013-07-21 16:51:00,
2013-07-21 12:52:00,89.9,80.1,30.11,ESE,108,2.0,7.0,73,0.00,,FEW,0.00,751.00,VWS V14.01,2013-07-21 16:52:00,
2013-07-21 12:53:00,89.8,80.0,30.11,SE,125,5.0,6.0,73,0.00,,FEW,0.00,751.00,VWS V14.01,2013-07-21 16:53:00,
2013-07-21 12:57:00,89.5,79.7,30.11,ESE,122,2.0,8.0,73,0.00,,FEW,0.00,751.00,VWS V14.01,2013-07-21 16:57:00,
2013-07-21 12:58:00,89.2,79.4,30.11,ESE,123,7.0,11.0,73,0.00,,FEW,0.00,802.00,VWS V14.01,2013-07-21 16:58:00,
2013-07-21 13:02:00,88.6,79.7,30.11,SE,131,4.0,11.0,75,0.00,,FEW,0.00,694.00,VWS V14.01,2013-07-21 17:02:00,
2013-07-21 13:03:00,88.6,79.7,30.11,SE,146,2.0,5.0,75,0.00,,FEW,0.00,719.00,VWS V14.01,2013-07-21 17:03:00,
2013-07-21 13:07:00,88.3,79.8,30.11,SE,146,3.0,8.0,76,0.00,,FEW,0.00,729.00,VWS V14.01,2013-07-21 17:07:00,
2013-07-21 13:08:00,88.3,79.8,30.11,SSE,153,2.0,8.0,76,0.00,,FEW,0.00,761.00,VWS V14.01,2013-07-21 17:08:00,
2013-07-21 13:12:00,88.6,80.1,30.11,SE,126,4.0,8.0,76,0.00,,FEW,0.00,773.00,VWS V14.01,2013-07-21 17:12:00,
2013-07-21 13:13:00,88.7,80.2,30.11,East,89,1.0,5.0,76,0.00,,FEW,0.00,773.00,VWS V14.01,2013-07-21 17:13:00,
2013-07-21 13:14:00,88.8,80.3,30.11,ESE,113,1.0,5.0,76,0.00,,FEW,0.00,652.00,VWS V14.01,2013-07-21 17:14:00,
2013-07-21 13:17:00,89.2,80.7,30.11,ESE,106,1.0,7.0,76,0.00,,FEW,0.00,652.00,VWS V14.01,2013-07-21 17:17:00,
2013-07-21 13:18:00,89.2,80.7,30.11,SSE,163,1.0,7.0,76,0.00,,FEW,0.00,652.00,VWS V14.01,2013-07-21 17:18:00,
2013-07-21 13:19:00,89.3,80.7,30.11,East,101,3.0,7.0,76,0.00,,FEW,0.00,652.00,VWS V14.01,2013-07-21 17:19:00,
2013-07-21 13:25:00,88.4,79.9,30.11,ESE,114,3.0,3.0,76,0.00,,FEW,0.00,751.00,VWS V14.01,2013-07-21 17:25:00,
2013-07-21 13:30:00,87.9,79.8,30.11,ESE,123,4.0,9.0,77,0.00,,FEW,0.00,1053.00,VWS V14.01,2013-07-21 17:30:00,
2013-07-21 13:31:00,87.9,79.8,30.11,SE,142,4.0,9.0,77,0.00,,FEW,0.00,1053.00,VWS V14.01,2013-07-21 17:31:00,
2013-07-21 13:35:00,88.6,80.1,30.10,SSE,167,4.0,8.0,76,0.00,,FEW,0.00,1065.00,VWS V14.01,2013-07-21 17:35:00,
2013-07-21 13:36:00,88.7,80.2,30.10,East,101,3.0,8.0,76,0.00,,FEW,0.00,1065.00,VWS V14.01,2013-07-21 17:36:00,
2013-07-21 13:40:00,88.9,79.9,30.10,ESE,121,2.0,8.0,75,0.00,,FEW,0.00,983.00,VWS V14.01,2013-07-21 17:40:00,
2013-07-21 13:41:00,88.9,79.9,30.10,SSE,150,4.0,8.0,75,0.00,,FEW,0.00,983.00,VWS V14.01,2013-07-21 17:41:00,
2013-07-21 13:45:00,88.9,79.5,30.10,ESE,117,5.0,7.0,74,0.00,,FEW,0.00,1013.00,VWS V14.01,2013-07-21 17:45:00,
2013-07-21 13:46:00,88.8,79.4,30.10,ESE,121,4.0,7.0,74,0.00,,FEW,0.00,1048.00,VWS V14.01,2013-07-21 17:46:00,
2013-07-21 13:50:00,88.8,79.9,30.10,SE,134,3.0,9.0,75,0.00,,FEW,0.00,1130.00,VWS V14.01,2013-07-21 17:50:00,
2013-07-21 13:51:00,88.7,79.8,30.10,SE,140,3.0,9.0,75,0.00,,FEW,0.00,1130.00,VWS V14.01,2013-07-21 17:51:00,
2013-07-21 13:55:00,88.8,80.3,30.10,SSE,157,6.0,8.0,76,0.00,,FEW,0.00,290.00,VWS V14.01,2013-07-21 17:55:00,
2013-07-21 13:56:00,88.8,80.3,30.10,SE,133,5.0,9.0,76,0.00,,FEW,0.00,290.00,VWS V14.01,2013-07-21 17:56:00,
2013-07-21 13:57:00,88.8,80.3,30.10,ESE,119,10.0,10.0,76,0.00,,FEW,0.00,290.00,VWS V14.01,2013-07-21 17:57:00,
2013-07-21 14:00:00,89.1,80.6,30.10,SE,142,5.0,10.0,76,0.00,,FEW,0.00,1102.00,VWS V14.01,2013-07-21 18:00:00,
2013-07-21 14:01:00,89.2,80.7,30.10,ESE,106,3.0,10.0,76,0.00,,FEW,0.00,1102.00,VWS V14.01,2013-07-21 18:01:00,
2013-07-21 14:02:00,89.2,80.7,30.09,SE,134,4.0,10.0,76,0.00,,FEW,0.00,1102.00,VWS V14.01,2013-07-21 18:02:00,
2013-07-21 14:05:00,89.2,81.1,30.09,East,100,1.0,8.0,77,0.00,,FEW,0.00,1102.00,VWS V14.01,2013-07-21 18:05:00,
2013-07-21 14:06:00,89.3,81.1,30.09,SE,140,3.0,8.0,77,0.00,,FEW,0.00,1146.00,VWS V14.01,2013-07-21 18:06:00,
2013-07-21 14:07:00,89.2,80.7,30.09,ESE,117,7.0,9.0,76,0.00,,FEW,0.00,1187.00,VWS V14.01,2013-07-21 18:07:00,
2013-07-21 14:10:00,89.3,80.7,30.09,ESE,122,5.0,9.0,76,0.00,,FEW,0.00,508.00,VWS V14.01,2013-07-21 18:10:00,
2013-07-21 14:11:00,89.2,80.7,30.09,ESE,113,3.0,9.0,76,0.00,,FEW,0.00,508.00,VWS V14.01,2013-07-21 18:11:00,
2013-07-21 14:12:00,89.2,80.7,30.09,ESE,119,5.0,9.0,76,0.00,,FEW,0.00,508.00,VWS V14.01,2013-07-21 18:12:00,
2013-07-21 14:16:00,88.6,80.5,30.09,SE,139,3.0,10.0,77,0.00,,FEW,0.00,1206.00,VWS V14.01,2013-07-21 18:16:00,
2013-07-21 14:17:00,88.6,80.5,30.09,SSE,161,3.0,10.0,77,0.00,,FEW,0.00,1218.00,VWS V14.01,2013-07-21 18:17:00,
2013-07-21 14:21:00,88.5,80.4,30.09,SE,132,3.0,10.0,77,0.00,,FEW,0.00,1150.00,VWS V14.01,2013-07-21 18:21:00,
2013-07-21 14:22:00,88.6,80.1,30.09,SE,132,3.0,10.0,76,0.00,,FEW,0.00,1141.00,VWS V14.01,2013-07-21 18:22:00,
2013-07-21 14:26:00,88.8,80.3,30.09,East,97,7.0,11.0,76,0.00,,FEW,0.00,997.00,VWS V14.01,2013-07-21 18:26:00,
2013-07-21 14:27:00,88.8,79.9,30.09,East,101,5.0,11.0,75,0.00,,FEW,0.00,1013.00,VWS V14.01,2013-07-21 18:27:00,
2013-07-21 14:31:00,89.0,80.1,30.09,SE,126,8.0,11.0,75,0.00,,FEW,0.00,1034.00,VWS V14.01,2013-07-21 18:31:00,
2013-07-21 14:32:00,89.0,80.1,30.08,SSE,150,5.0,11.0,75,0.00,,FEW,0.00,1034.00,VWS V14.01,2013-07-21 18:32:00,
2013-07-21 14:36:00,89.2,80.2,30.08,ESE,105,7.0,7.0,75,0.00,,FEW,0.00,1034.00,VWS V14.01,2013-07-21 18:36:00,
2013-07-21 14:37:00,89.1,80.1,30.08,ESE,112,4.0,8.0,75,0.00,,FEW,0.00,1034.00,VWS V14.01,2013-07-21 18:37:00,
2013-07-21 14:38:00,89.0,79.6,30.08,East,94,6.0,9.0,74,0.00,,FEW,0.00,1034.00,VWS V14.01,2013-07-21 18:38:00,
2013-07-21 14:41:00,88.7,79.3,30.08,ESE,105,4.0,10.0,74,0.00,,FEW,0.00,967.00,VWS V14.01,2013-07-21 18:41:00,
2013-07-21 14:42:00,88.7,79.8,30.08,SSE,153,5.0,10.0,75,0.00,,FEW,0.00,967.00,VWS V14.01,2013-07-21 18:42:00,
2013-07-21 14:43:00,88.9,79.9,30.08,ESE,112,5.0,8.0,75,0.00,,FEW,0.00,967.00,VWS V14.01,2013-07-21 18:43:00,
2013-07-21 14:46:00,89.3,80.3,30.08,ESE,112,1.0,8.0,75,0.00,,FEW,0.00,933.00,VWS V14.01,2013-07-21 18:46:00,
2013-07-21 14:47:00,89.4,80.0,30.08,ESE,103,2.0,8.0,74,0.00,,FEW,0.00,933.00,VWS V14.01,2013-07-21 18:47:00,
2013-07-21 14:48:00,89.4,79.6,30.08,ESE,116,5.0,8.0,73,0.00,,FEW,0.00,930.00,VWS V14.01,2013-07-21 18:48:00,
2013-07-21 14:51:00,89.3,79.5,30.08,ESE,103,4.0,10.0,73,0.00,,FEW,0.00,912.00,VWS V14.01,2013-07-21 18:51:00,
2013-07-21 14:52:00,89.2,79.4,30.08,SE,133,7.0,7.0,73,0.00,,FEW,0.00,912.00,VWS V14.01,2013-07-21 18:52:00,
2013-07-21 14:53:00,89.1,79.3,30.08,ESE,119,7.0,8.0,73,0.00,,FEW,0.00,914.00,VWS V14.01,2013-07-21 18:53:00,
2013-07-21 14:56:00,88.9,79.1,30.08,ESE,112,5.0,8.0,73,0.00,,FEW,0.00,891.00,VWS V14.01,2013-07-21 18:56:00,
2013-07-21 14:57:00,88.9,79.1,30.08,SE,133,7.0,8.0,73,0.00,,FEW,0.00,891.00,VWS V14.01,2013-07-21 18:57:00,
2013-07-21 14:58:00,88.8,79.0,30.08,East,99,2.0,8.0,73,0.00,,FEW,0.00,888.00,VWS V14.01,2013-07-21 18:58:00,
2013-07-21 14:59:00,88.8,79.0,30.08,ESE,117,7.0,8.0,73,0.00,,FEW,0.00,854.00,VWS V14.01,2013-07-21 18:59:00,
2013-07-21 15:02:00,88.8,79.4,30.08,South,182,8.0,9.0,74,0.00,,FEW,0.00,868.00,VWS V14.01,2013-07-21 19:02:00,
2013-07-21 15:03:00,88.8,79.4,30.08,NE,53,3.0,5.0,74,0.00,,FEW,0.00,868.00,VWS V14.01,2013-07-21 19:03:00,
2013-07-21 15:04:00,88.8,79.4,30.08,SE,141,1.0,5.0,74,0.00,,FEW,0.00,867.00,VWS V14.01,2013-07-21 19:04:00,
2013-07-21 15:07:00,89.0,79.2,30.08,SE,134,1.0,7.0,73,0.00,,FEW,0.00,865.00,VWS V14.01,2013-07-21 19:07:00,
2013-07-21 15:08:00,88.9,79.1,30.08,ESE,115,5.0,7.0,73,0.00,,FEW,0.00,865.00,VWS V14.01,2013-07-21 19:08:00,
2013-07-21 15:09:00,88.9,79.1,30.08,ESE,115,4.0,7.0,73,0.00,,FEW,0.00,860.00,VWS V14.01,2013-07-21 19:09:00,
2013-07-21 15:12:00,89.0,79.6,30.08,East,86,1.0,1.0,74,0.00,,FEW,0.00,853.00,VWS V14.01,2013-07-21 19:12:00,
2013-07-21 15:13:00,89.1,79.7,30.08,East,96,6.0,7.0,74,0.00,,FEW,0.00,851.00,VWS V14.01,2013-07-21 19:13:00,
2013-07-21 15:14:00,89.3,79.9,30.08,ESE,111,0.0,7.0,74,0.00,,FEW,0.00,853.00,VWS V14.01,2013-07-21 19:14:00,
2013-07-21 15:17:00,89.4,78.8,30.08,SSE,152,4.0,9.0,71,0.00,,FEW,0.00,854.00,VWS V14.01,2013-07-21 19:17:00,
2013-07-21 15:18:00,89.3,78.7,30.08,SSE,147,6.0,9.0,71,0.00,,FEW,0.00,854.00,VWS V14.01,2013-07-21 19:18:00,
2013-07-21 15:19:00,89.0,78.4,30.08,SE,128,6.0,9.0,71,0.00,,FEW,0.00,854.00,VWS V14.01,2013-07-21 19:19:00,
2013-07-21 15:23:00,88.8,79.0,30.08,SE,125,2.0,7.0,73,0.00,,FEW,0.00,875.00,VWS V14.01,2013-07-21 19:23:00,
2013-07-21 15:24:00,88.9,79.5,30.08,ENE,63,0.0,7.0,74,0.00,,FEW,0.00,863.00,VWS V14.01,2013-07-21 19:24:00,
2013-07-21 15:28:00,89.5,79.3,30.08,SSE,162,5.0,11.0,72,0.00,,FEW,0.00,881.00,VWS V14.01,2013-07-21 19:28:00,
2013-07-21 15:29:00,89.3,78.7,30.08,ESE,111,3.0,11.0,71,0.00,,FEW,0.00,881.00,VWS V14.01,2013-07-21 19:29:00,
2013-07-21 15:33:00,88.5,77.9,30.07,ESE,117,11.0,11.0,71,0.00,,FEW,0.00,879.00,VWS V14.01,2013-07-21 19:33:00,
2013-07-21 15:34:00,88.5,78.3,30.07,SE,132,4.0,11.0,72,0.00,,FEW,0.00,853.00,VWS V14.01,2013-07-21 19:34:00,
2013-07-21 15:35:00,88.4,78.2,30.07,SE,128,3.0,11.0,72,0.00,,FEW,0.00,847.00,VWS V14.01,2013-07-21 19:35:00,
2013-07-21 15:38:00,88.6,78.4,30.07,SSE,153,5.0,11.0,72,0.00,,FEW,0.00,809.00,VWS V14.01,2013-07-21 19:38:00,
2013-07-21 15:39:00,88.6,78.4,30.07,SE,136,6.0,11.0,72,0.00,,FEW,0.00,882.00,VWS V14.01,2013-07-21 19:39:00,
2013-07-21 15:40:00,88.6,78.8,30.07,ESE,121,1.0,11.0,73,0.00,,FEW,0.00,863.00,VWS V14.01,2013-07-21 19:40:00,
2013-07-21 15:43:00,89.2,79.0,30.07,NNE,30,3.0,8.0,72,0.00,,FEW,0.00,798.00,VWS V14.01,2013-07-21 19:43:00,
2013-07-21 15:44:00,89.3,79.1,30.07,SSE,147,0.0,8.0,72,0.00,,FEW,0.00,798.00,VWS V14.01,2013-07-21 19:44:00,
2013-07-21 15:45:00,89.4,79.2,30.07,SE,126,4.0,8.0,72,0.00,,FEW,0.00,717.00,VWS V14.01,2013-07-21 19:45:00,
2013-07-21 15:48:00,89.3,78.7,30.06,East,86,2.0,8.0,71,0.00,,FEW,0.00,612.00,VWS V14.01,2013-07-21 19:48:00,
2013-07-21 15:49:00,89.3,78.7,30.06,ESE,109,5.0,8.0,71,0.00,,FEW,0.00,612.00,VWS V14.01,2013-07-21 19:49:00,
2013-07-21 15:50:00,89.2,78.6,30.06,East,82,2.0,8.0,71,0.00,,FEW,0.00,694.00,VWS V14.01,2013-07-21 19:50:00,
2013-07-21 15:53:00,89.0,78.8,30.06,East,79,1.0,4.0,72,0.00,,FEW,0.00,780.00,VWS V14.01,2013-07-21 19:53:00,
2013-07-21 15:54:00,89.0,78.8,30.06,SE,140,6.0,6.0,72,0.00,,FEW,0.00,780.00,VWS V14.01,2013-07-21 19:54:00,
2013-07-21 15:55:00,89.0,78.8,30.06,ESE,111,3.0,8.0,72,0.00,,FEW,0.00,780.00,VWS V14.01,2013-07-21 19:55:00,
2013-07-21 15:56:00,89.0,78.8,30.06,NE,56,3.0,8.0,72,0.00,,FEW,0.00,768.00,VWS V14.01,2013-07-21 19:56:00,
2013-07-21 15:58:00,89.2,79.4,30.06,ESE,102,4.0,8.0,73,0.00,,FEW,0.00,754.00,VWS V14.01,2013-07-21 19:58:00,
2013-07-21 15:59:00,89.2,79.4,30.06,ESE,107,3.0,8.0,73,0.00,,FEW,0.00,754.00,VWS V14.01,2013-07-21 19:59:00,
2013-07-21 16:00:00,89.3,79.5,30.06,ENE,66,2.0,8.0,73,0.00,,FEW,0.00,756.00,VWS V14.01,2013-07-21 20:00:00,
2013-07-21 16:01:00,89.2,78.6,30.06,SE,132,3.0,8.0,71,0.00,,FEW,0.00,756.00,VWS V14.01,2013-07-21 20:01:00,
2013-07-21 16:04:00,89.0,77.9,30.06,SE,139,4.0,10.0,70,0.00,,FEW,0.00,744.00,VWS V14.01,2013-07-21 20:04:00,
2013-07-21 16:05:00,89.0,78.4,30.06,ESE,104,2.0,10.0,71,0.00,,FEW,0.00,742.00,VWS V14.01,2013-07-21 20:05:00,
2013-07-21 16:07:00,89.0,78.4,30.06,SE,128,6.0,10.0,71,0.00,,FEW,0.00,740.00,VWS V14.01,2013-07-21 20:07:00,
2013-07-21 16:09:00,88.8,78.6,30.06,SE,126,5.0,10.0,72,0.00,,FEW,0.00,731.00,VWS V14.01,2013-07-21 20:09:00,
2013-07-21 16:10:00,88.7,78.5,30.06,ESE,107,4.0,10.0,72,0.00,,FEW,0.00,731.00,VWS V14.01,2013-07-21 20:10:00,
2013-07-21 16:12:00,88.6,78.8,30.06,East,95,3.0,10.0,73,0.00,,FEW,0.00,719.00,VWS V14.01,2013-07-21 20:12:00,
2013-07-21 16:14:00,88.6,78.8,30.06,SE,142,4.0,7.0,73,0.00,,FEW,0.00,719.00,VWS V14.01,2013-07-21 20:14:00,
2013-07-21 16:15:00,88.7,78.9,30.06,SE,126,6.0,7.0,73,0.00,,FEW,0.00,719.00,VWS V14.01,2013-07-21 20:15:00,
2013-07-21 16:16:00,88.8,79.4,30.06,ESE,117,5.0,7.0,74,0.00,,FEW,0.00,717.00,VWS V14.01,2013-07-21 20:16:00,
2013-07-21 16:17:00,88.9,78.7,30.05,SSE,150,5.0,7.0,72,0.00,,FEW,0.00,712.00,VWS V14.01,2013-07-21 20:17:00,
2013-07-21 16:19:00,89.0,78.8,30.05,SE,132,4.0,7.0,72,0.00,,FEW,0.00,708.00,VWS V14.01,2013-07-21 20:19:00,
2013-07-21 16:20:00,89.3,79.1,30.05,East,87,0.0,7.0,72,0.00,,FEW,0.00,708.00,VWS V14.01,2013-07-21 20:20:00,
2013-07-21 16:21:00,89.4,79.2,30.05,SE,135,4.0,7.0,72,0.00,,FEW,0.00,705.00,VWS V14.01,2013-07-21 20:21:00,
2013-07-21 16:22:00,89.6,79.4,30.05,SE,146,2.0,7.0,72,0.00,,FEW,0.00,703.00,VWS V14.01,2013-07-21 20:22:00,
2013-07-21 16:24:00,89.8,79.1,30.05,ESE,118,2.0,7.0,71,0.00,,FEW,0.00,693.00,VWS V14.01,2013-07-21 20:24:00,
2013-07-21 16:25:00,89.9,79.2,30.05,ESE,115,5.0,7.0,71,0.00,,FEW,0.00,693.00,VWS V14.01,2013-07-21 20:25:00,
2013-07-21 16:26:00,89.9,78.8,30.05,ENE,67,2.0,9.0,70,0.00,,FEW,0.00,684.00,VWS V14.01,2013-07-21 20:26:00,
2013-07-21 16:27:00,89.9,79.2,30.05,East,98,3.0,9.0,71,0.00,,FEW,0.00,684.00,VWS V14.01,2013-07-21 20:27:00,
2013-07-21 16:29:00,89.9,78.8,30.05,ESE,113,1.0,9.0,70,0.00,,FEW,0.00,682.00,VWS V14.01,2013-07-21 20:29:00,
2013-07-21 16:30:00,90.0,79.3,30.05,SE,131,5.0,9.0,71,0.00,,FEW,0.00,682.00,VWS V14.01,2013-07-21 20:30:00,
2013-07-21 16:31:00,90.1,79.4,30.05,ESE,123,4.0,9.0,71,0.00,,FEW,0.00,677.00,VWS V14.01,2013-07-21 20:31:00,
2013-07-21 16:32:00,90.1,79.4,30.05,East,89,0.0,9.0,71,0.00,,FEW,0.00,675.00,VWS V14.01,2013-07-21 20:32:00,
2013-07-21 16:34:00,90.2,79.1,30.05,SE,141,3.0,6.0,70,0.00,,FEW,0.00,670.00,VWS V14.01,2013-07-21 20:34:00,
2013-07-21 16:35:00,90.2,79.1,30.05,East,101,3.0,6.0,70,0.00,,FEW,0.00,670.00,VWS V14.01,2013-07-21 20:35:00,
2013-07-21 16:37:00,90.1,78.6,30.05,ESE,117,5.0,8.0,69,0.00,,FEW,0.00,661.00,VWS V14.01,2013-07-21 20:37:00,
2013-07-21 16:40:00,89.9,78.8,30.05,SE,140,5.0,8.0,70,0.00,,FEW,0.00,654.00,VWS V14.01,2013-07-21 20:40:00,
2013-07-21 16:41:00,89.9,79.2,30.05,SE,142,3.0,9.0,71,0.00,,FEW,0.00,645.00,VWS V14.01,2013-07-21 20:41:00,
2013-07-21 16:42:00,89.8,79.1,30.05,ESE,119,2.0,9.0,71,0.00,,FEW,0.00,638.00,VWS V14.01,2013-07-21 20:42:00,
2013-07-21 16:45:00,89.8,79.1,30.05,SE,136,3.0,6.0,71,0.00,,FEW,0.00,633.00,VWS V14.01,2013-07-21 20:45:00,
2013-07-21 16:46:00,89.8,79.1,30.05,SE,145,3.0,6.0,71,0.00,,FEW,0.00,629.00,VWS V14.01,2013-07-21 20:46:00,
2013-07-21 16:47:00,89.8,79.1,30.05,SE,141,2.0,6.0,71,0.00,,FEW,0.00,624.00,VWS V14.01,2013-07-21 20:47:00,
2013-07-21 16:50:00,89.8,78.7,30.05,ESE,117,9.0,10.0,70,0.00,,FEW,0.00,624.00,VWS V14.01,2013-07-21 20:50:00,
2013-07-21 16:51:00,89.8,78.7,30.05,SE,139,6.0,10.0,70,0.00,,FEW,0.00,621.00,VWS V14.01,2013-07-21 20:51:00,
2013-07-21 16:52:00,89.7,78.6,30.05,SE,137,6.0,10.0,70,0.00,,FEW,0.00,615.00,VWS V14.01,2013-07-21 20:52:00,
2013-07-21 16:55:00,89.6,78.9,30.05,East,90,0.0,6.0,71,0.00,,FEW,0.00,606.00,VWS V14.01,2013-07-21 20:55:00,
2013-07-21 16:56:00,89.7,79.1,30.05,ESE,111,9.0,9.0,71,0.00,,FEW,0.00,606.00,VWS V14.01,2013-07-21 20:56:00,
2013-07-21 16:57:00,89.6,78.5,30.05,East,94,2.0,9.0,70,0.00,,FEW,0.00,601.00,VWS V14.01,2013-07-21 20:57:00,
2013-07-21 17:00:00,89.6,78.5,30.05,SE,139,5.0,9.0,70,0.00,,FEW,0.00,592.00,VWS V14.01,2013-07-21 21:00:00,
2013-07-21 17:01:00,89.5,78.4,30.05,SSE,148,7.0,9.0,70,0.00,,FEW,0.00,596.00,VWS V14.01,2013-07-21 21:01:00,
2013-07-21 17:02:00,89.5,78.4,30.05,SE,129,5.0,9.0,70,0.00,,FEW,0.00,571.00,VWS V14.01,2013-07-21 21:02:00,
2013-07-21 17:05:00,89.5,79.3,30.05,SE,134,2.0,5.0,72,0.00,,FEW,0.00,587.00,VWS V14.01,2013-07-21 21:05:00,
2013-07-21 17:06:00,89.6,79.4,30.05,ESE,123,4.0,5.0,72,0.00,,FEW,0.00,591.00,VWS V14.01,2013-07-21 21:06:00,
2013-07-21 17:07:00,89.6,79.4,30.05,SE,143,3.0,7.0,72,0.00,,FEW,0.00,591.00,VWS V14.01,2013-07-21 21:07:00,
2013-07-21 17:10:00,89.6,78.9,30.05,SSE,149,8.0,9.0,71,0.00,,FEW,0.00,591.00,VWS V14.01,2013-07-21 21:10:00,
2013-07-21 17:11:00,89.5,78.9,30.05,SE,134,2.0,9.0,71,0.00,,FEW,0.00,561.00,VWS V14.01,2013-07-21 21:11:00,
2013-07-21 17:12:00,89.5,78.9,30.05,SE,134,6.0,9.0,71,0.00,,FEW,0.00,563.00,VWS V14.01,2013-07-21 21:12:00,
2013-07-21 17:13:00,89.5,78.9,30.05,ENE,70,2.0,3.0,71,0.00,,FEW,0.00,559.00,VWS V14.01,2013-07-21 21:13:00,
2013-07-21 17:15:00,89.4,78.8,30.05,SE,142,6.0,7.0,71,0.00,,FEW,0.00,557.00,VWS V14.01,2013-07-21 21:15:00,
2013-07-21 17:16:00,89.4,79.2,30.05,ESE,103,7.0,7.0,72,0.00,,FEW,0.00,557.00,VWS V14.01,2013-07-21 21:16:00,
2013-07-21 17:17:00,89.3,78.7,30.04,SE,146,1.0,7.0,71,0.00,,FEW,0.00,555.00,VWS V14.01,2013-07-21 21:17:00,
2013-07-21 17:18:00,89.3,78.7,30.04,SE,125,5.0,7.0,71,0.00,,FEW,0.00,570.00,VWS V14.01,2013-07-21 21:18:00,
2013-07-21 17:20:00,89.1,78.9,30.04,ESE,118,2.0,10.0,72,0.00,,FEW,0.00,255.00,VWS V14.01,2013-07-21 21:20:00,
2013-07-21 17:21:00,89.1,78.9,30.04,ESE,117,2.0,10.0,72,0.00,,FEW,0.00,255.00,VWS V14.01,2013-07-21 21:21:00,
2013-07-21 17:22:00,89.2,79.4,30.04,SSE,156,4.0,5.0,73,0.00,,FEW,0.00,563.00,VWS V14.01,2013-07-21 21:22:00,
2013-07-21 17:23:00,89.1,78.9,30.04,SE,141,5.0,6.0,72,0.00,,FEW,0.00,555.00,VWS V14.01,2013-07-21 21:23:00,
2013-07-21 17:25:00,89.2,79.0,30.04,SE,135,4.0,6.0,72,0.00,,FEW,0.00,533.00,VWS V14.01,2013-07-21 21:25:00,
2013-07-21 17:26:00,89.2,79.0,30.04,SE,134,5.0,6.0,72,0.00,,FEW,0.00,536.00,VWS V14.01,2013-07-21 21:26:00,
2013-07-21 17:27:00,89.2,79.0,30.04,ESE,115,3.0,6.0,72,0.00,,FEW,0.00,536.00,VWS V14.01,2013-07-21 21:27:00,
2013-07-21 17:28:00,89.1,78.5,30.04,ESE,105,3.0,9.0,71,0.00,,FEW,0.00,536.00,VWS V14.01,2013-07-21 21:28:00,
2013-07-21 17:31:00,89.1,78.9,30.04,SE,142,1.0,9.0,72,0.00,,FEW,0.00,519.00,VWS V14.01,2013-07-21 21:31:00,
2013-07-21 17:32:00,89.1,78.5,30.04,ENE,60,2.0,9.0,71,0.00,,FEW,0.00,510.00,VWS V14.01,2013-07-21 21:32:00,
2013-07-21 17:33:00,89.1,78.9,30.04,East,97,1.0,1.0,72,0.00,,FEW,0.00,506.00,VWS V14.01,2013-07-21 21:33:00,
2013-07-21 17:36:00,89.2,79.0,30.04,ESE,105,7.0,7.0,72,0.00,,FEW,0.00,501.00,VWS V14.01,2013-07-21 21:36:00,
2013-07-21 17:37:00,89.2,79.0,30.04,SE,133,2.0,7.0,72,0.00,,FEW,0.00,494.00,VWS V14.01,2013-07-21 21:37:00,
2013-07-21 17:38:00,89.3,79.5,30.04,NE,54,6.0,8.0,73,0.00,,FEW,0.00,483.00,VWS V14.01,2013-07-21 21:38:00,
2013-07-21 17:41:00,89.3,78.7,30.04,ESE,119,4.0,8.0,71,0.00,,FEW,0.00,487.00,VWS V14.01,2013-07-21 21:41:00,
2013-07-21 17:42:00,89.3,78.7,30.04,SE,146,3.0,3.0,71,0.00,,FEW,0.00,492.00,VWS V14.01,2013-07-21 21:42:00,
2013-07-21 17:43:00,89.3,79.1,30.04,East,101,2.0,7.0,72,0.00,,FEW,0.00,492.00,VWS V14.01,2013-07-21 21:43:00,
2013-07-21 17:46:00,89.1,78.9,30.04,ESE,112,2.0,9.0,72,0.00,,FEW,0.00,494.00,VWS V14.01,2013-07-21 21:46:00,
2013-07-21 17:47:00,89.1,78.9,30.04,East,98,2.0,9.0,72,0.00,,FEW,0.00,497.00,VWS V14.01,2013-07-21 21:47:00,
2013-07-21 17:48:00,89.0,78.8,30.04,SE,140,2.0,9.0,72,0.00,,FEW,0.00,490.00,VWS V14.01,2013-07-21 21:48:00,
2013-07-21 17:49:00,89.1,79.3,30.04,ESE,102,0.0,9.0,73,0.00,,FEW,0.00,490.00,VWS V14.01,2013-07-21 21:49:00,
2013-07-21 17:51:00,89.0,78.8,30.04,SE,142,5.0,9.0,72,0.00,,FEW,0.00,248.00,VWS V14.01,2013-07-21 21:51:00,
2013-07-21 17:52:00,88.9,78.7,30.04,ESE,118,3.0,4.0,72,0.00,,FEW,0.00,483.00,VWS V14.01,2013-07-21 21:52:00,
2013-07-21 17:53:00,88.9,78.7,30.04,SE,139,0.0,7.0,72,0.00,,FEW,0.00,490.00,VWS V14.01,2013-07-21 21:53:00,
2013-07-21 17:54:00,88.9,78.7,30.04,SE,130,1.0,7.0,72,0.00,,FEW,0.00,487.00,VWS V14.01,2013-07-21 21:54:00,
2013-07-21 17:56:00,89.1,78.9,30.04,SSE,153,2.0,7.0,72,0.00,,FEW,0.00,489.00,VWS V14.01,2013-07-21 21:56:00,
2013-07-21 17:58:00,89.1,78.9,30.04,ESE,110,2.0,7.0,72,0.00,,FEW,0.00,450.00,VWS V14.01,2013-07-21 21:58:00,
2013-07-21 17:59:00,89.2,79.0,30.04,East,88,1.0,7.0,72,0.00,,FEW,0.00,441.00,VWS V14.01,2013-07-21 21:59:00,
2013-07-21 18:01:00,89.4,79.2,30.04,ESE,116,0.0,7.0,72,0.00,,FEW,0.00,403.00,VWS V14.01,2013-07-21 22:01:00,
2013-07-21 18:03:00,89.5,79.3,30.04,ESE,108,7.0,7.0,72,0.00,,FEW,0.00,357.00,VWS V14.01,2013-07-21 22:03:00,
2013-07-21 18:04:00,89.4,78.8,30.04,East,80,0.0,7.0,71,0.00,,FEW,0.00,357.00,VWS V14.01,2013-07-21 22:04:00,
2013-07-21 18:06:00,89.2,78.6,30.04,ENE,72,0.0,7.0,71,0.00,,FEW,0.00,309.00,VWS V14.01,2013-07-21 22:06:00,
2013-07-21 18:07:00,89.2,78.6,30.04,ENE,73,1.0,7.0,71,0.00,,FEW,0.00,309.00,VWS V14.01,2013-07-21 22:07:00,
2013-07-21 18:08:00,89.2,79.0,30.04,East,85,0.0,7.0,72,0.00,,FEW,0.00,283.00,VWS V14.01,2013-07-21 22:08:00,
2013-07-21 18:09:00,89.2,79.0,30.04,ESE,119,1.0,7.0,72,0.00,,FEW,0.00,272.00,VWS V14.01,2013-07-21 22:09:00,
2013-07-21 18:11:00,88.9,78.7,30.04,SE,136,4.0,7.0,72,0.00,,FEW,0.00,229.00,VWS V14.01,2013-07-21 22:11:00,
2013-07-21 18:12:00,88.8,78.6,30.04,ESE,112,4.0,7.0,72,0.00,,FEW,0.00,221.00,VWS V14.01,2013-07-21 22:12:00,
2013-07-21 18:13:00,88.7,78.1,30.04,ESE,111,2.0,4.0,71,0.00,,FEW,0.00,218.00,VWS V14.01,2013-07-21 22:13:00,
2013-07-21 18:14:00,88.5,78.3,30.04,NE,46,0.0,4.0,72,0.00,,FEW,0.00,216.00,VWS V14.01,2013-07-21 22:14:00,
2013-07-21 18:17:00,88.2,78.0,30.04,SE,136,3.0,6.0,72,0.00,,FEW,0.00,214.00,VWS V14.01,2013-07-21 22:17:00,
2013-07-21 18:18:00,88.1,78.4,30.04,East,83,5.0,6.0,73,0.00,,FEW,0.00,230.00,VWS V14.01,2013-07-21 22:18:00,
2013-07-21 18:19:00,87.9,78.2,30.04,SSE,155,6.0,7.0,73,0.00,,FEW,0.00,258.00,VWS V14.01,2013-07-21 22:19:00,
2013-07-21 18:22:00,87.5,78.2,30.04,East,91,3.0,8.0,74,0.00,,FEW,0.00,213.00,VWS V14.01,2013-07-21 22:22:00,
2013-07-21 18:23:00,87.4,78.1,30.04,SE,144,8.0,8.0,74,0.00,,FEW,0.00,139.00,VWS V14.01,2013-07-21 22:23:00,
2013-07-21 18:24:00,87.2,77.9,30.04,ESE,112,3.0,8.0,74,0.00,,FEW,0.00,190.00,VWS V14.01,2013-07-21 22:24:00,
2013-07-21 18:27:00,87.0,78.1,30.04,SE,142,3.0,8.0,75,0.00,,FEW,0.00,220.00,VWS V14.01,2013-07-21 22:27:00,
2013-07-21 18:28:00,86.9,78.0,30.04,East,98,3.0,8.0,75,0.00,,FEW,0.00,236.00,VWS V14.01,2013-07-21 22:28:00,
2013-07-21 18:29:00,86.7,77.8,30.04,SE,132,5.0,8.0,75,0.00,,FEW,0.00,151.00,VWS V14.01,2013-07-21 22:29:00,
2013-07-21 18:32:00,86.4,77.9,30.04,ESE,108,3.0,8.0,76,0.00,,FEW,0.00,223.00,VWS V14.01,2013-07-21 22:32:00,
2013-07-21 18:33:00,86.3,77.8,30.04,ESE,107,4.0,6.0,76,0.00,,FEW,0.00,223.00,VWS V14.01,2013-07-21 22:33:00,
2013-07-21 18:34:00,86.1,77.7,30.04,SE,135,0.0,6.0,76,0.00,,FEW,0.00,192.00,VWS V14.01,2013-07-21 22:34:00,
2013-07-21 18:35:00,86.1,77.7,30.04,SE,135,0.0,6.0,76,0.00,,FEW,0.00,192.00,VWS V14.01,2013-07-21 22:35:00,
2013-07-21 18:37:00,86.1,77.7,30.04,ENE,60,3.0,8.0,76,0.00,,FEW,0.00,220.00,VWS V14.01,2013-07-21 22:37:00,
2013-07-21 18:38:00,86.0,77.6,30.04,SE,138,6.0,8.0,76,0.00,,FEW,0.00,192.00,VWS V14.01,2013-07-21 22:38:00,
2013-07-21 18:39:00,86.0,77.6,30.04,SE,146,3.0,8.0,76,0.00,,FEW,0.00,190.00,VWS V14.01,2013-07-21 22:39:00,
2013-07-21 18:40:00,85.9,77.5,30.04,SE,141,5.0,8.0,76,0.00,,FEW,0.00,141.00,VWS V14.01,2013-07-21 22:40:00,
2013-07-21 18:42:00,85.9,77.5,30.04,SE,141,2.0,8.0,76,0.00,,FEW,0.00,181.00,VWS V14.01,2013-07-21 22:42:00,
2013-07-21 18:43:00,85.9,77.9,30.04,SE,130,0.0,2.0,77,0.00,,FEW,0.00,176.00,VWS V14.01,2013-07-21 22:43:00,
2013-07-21 18:44:00,86.1,78.1,30.04,ESE,120,1.0,5.0,77,0.00,,FEW,0.00,163.00,VWS V14.01,2013-07-21 22:44:00,
2013-07-21 18:45:00,86.1,78.1,30.04,ESE,120,1.0,5.0,77,0.00,,FEW,0.00,163.00,VWS V14.01,2013-07-21 22:45:00,
2013-07-21 18:46:00,86.2,78.2,30.04,East,91,2.0,5.0,77,0.00,,FEW,0.00,158.00,VWS V14.01,2013-07-21 22:46:00,
2013-07-21 18:47:00,86.2,77.8,30.05,ESE,121,1.0,5.0,76,0.00,,FEW,0.00,149.00,VWS V14.01,2013-07-21 22:47:00,
2013-07-21 18:48:00,86.2,77.8,30.05,SE,132,2.0,5.0,76,0.00,,FEW,0.00,146.00,VWS V14.01,2013-07-21 22:48:00,
2013-07-21 18:49:00,86.2,77.8,30.05,SE,129,7.0,7.0,76,0.00,,FEW,0.00,142.00,VWS V14.01,2013-07-21 22:49:00,
2013-07-21 18:50:00,86.2,77.8,30.05,ESE,120,5.0,7.0,76,0.00,,FEW,0.00,142.00,VWS V14.01,2013-07-21 22:50:00,
2013-07-21 18:51:00,86.1,77.7,30.05,SE,132,0.0,7.0,76,0.00,,FEW,0.00,142.00,VWS V14.01,2013-07-21 22:51:00,
2013-07-21 18:52:00,86.3,78.2,30.05,SE,125,3.0,3.0,77,0.00,,FEW,0.00,142.00,VWS V14.01,2013-07-21 22:52:00,
2013-07-21 18:53:00,86.2,78.2,30.05,NE,48,3.0,4.0,77,0.00,,FEW,0.00,141.00,VWS V14.01,2013-07-21 22:53:00,
2013-07-21 18:54:00,86.2,77.8,30.05,SE,124,1.0,4.0,76,0.00,,FEW,0.00,137.00,VWS V14.01,2013-07-21 22:54:00,
2013-07-21 18:55:00,86.2,77.8,30.05,SE,124,0.0,4.0,76,0.00,,FEW,0.00,132.00,VWS V14.01,2013-07-21 22:55:00,
2013-07-21 18:56:00,86.3,77.8,30.05,SE,143,3.0,4.0,76,0.00,,FEW,0.00,109.00,VWS V14.01,2013-07-21 22:56:00,
2013-07-21 18:57:00,86.3,77.8,30.05,SE,128,1.0,4.0,76,0.00,,FEW,0.00,120.00,VWS V14.01,2013-07-21 22:57:00,
2013-07-21 18:58:00,86.3,77.8,30.05,SE,128,0.0,4.0,76,0.00,,FEW,0.00,128.00,VWS V14.01,2013-07-21 22:58:00,
2013-07-21 19:00:00,86.4,78.3,30.05,SE,131,1.0,4.0,77,0.00,,FEW,0.00,127.00,VWS V14.01,2013-07-21 23:00:00,
2013-07-21 19:01:00,86.4,78.3,30.05,ENE,74,3.0,4.0,77,0.00,,FEW,0.00,120.00,VWS V14.01,2013-07-21 23:01:00,
2013-07-21 19:02:00,86.4,77.9,30.05,SE,130,2.0,2.0,76,0.00,,FEW,0.00,121.00,VWS V14.01,2013-07-21 23:02:00,
2013-07-21 19:03:00,86.4,77.9,30.05,ENE,58,1.0,5.0,76,0.00,,FEW,0.00,113.00,VWS V14.01,2013-07-21 23:03:00,
2013-07-21 19:05:00,86.3,77.8,30.05,ENE,72,0.0,5.0,76,0.00,,FEW,0.00,105.00,VWS V14.01,2013-07-21 23:05:00,
2013-07-21 19:06:00,86.3,77.8,30.05,East,99,5.0,5.0,76,0.00,,FEW,0.00,135.00,VWS V14.01,2013-07-21 23:06:00,
2013-07-21 19:07:00,86.3,77.8,30.05,ENE,61,3.0,5.0,76,0.00,,FEW,0.00,135.00,VWS V14.01,2013-07-21 23:07:00,
2013-07-21 19:09:00,86.3,78.2,30.05,SE,132,0.0,5.0,77,0.00,,FEW,0.00,135.00,VWS V14.01,2013-07-21 23:09:00,
2013-07-21 19:10:00,86.3,78.2,30.05,ESE,103,0.0,5.0,77,0.00,,FEW,0.00,125.00,VWS V14.01,2013-07-21 23:10:00,
2013-07-21 19:11:00,86.4,78.3,30.05,ESE,111,1.0,5.0,77,0.00,,FEW,0.00,125.00,VWS V14.01,2013-07-21 23:11:00,
2013-07-21 19:12:00,86.4,78.3,30.05,East,85,3.0,4.0,77,0.00,,FEW,0.00,113.00,VWS V14.01,2013-07-21 23:12:00,
2013-07-21 19:14:00,86.4,78.3,30.05,ESE,106,3.0,6.0,77,0.00,,FEW,0.00,109.00,VWS V14.01,2013-07-21 23:14:00,
2013-07-21 19:15:00,86.2,77.8,30.05,ESE,123,1.0,6.0,76,0.00,,FEW,0.00,86.00,VWS V14.01,2013-07-21 23:15:00,
2013-07-21 19:16:00,86.2,77.8,30.05,SE,129,4.0,6.0,76,0.00,,FEW,0.00,76.00,VWS V14.01,2013-07-21 23:16:00,
2013-07-21 19:17:00,86.1,77.7,30.04,ESE,109,1.0,6.0,76,0.00,,FEW,0.00,76.00,VWS V14.01,2013-07-21 23:17:00,
2013-07-21 19:18:00,86.0,77.6,30.04,SE,136,0.0,6.0,76,0.00,,FEW,0.00,72.00,VWS V14.01,2013-07-21 23:18:00,
2013-07-21 19:19:00,85.9,77.5,30.04,ESE,123,0.0,6.0,76,0.00,,FEW,0.00,69.00,VWS V14.01,2013-07-21 23:19:00,
2013-07-21 19:20:00,85.9,77.9,30.04,SE,129,2.0,6.0,77,0.00,,FEW,0.00,62.00,VWS V14.01,2013-07-21 23:20:00,
2013-07-21 19:21:00,85.9,77.9,30.04,ESE,123,2.0,6.0,77,0.00,,FEW,0.00,56.00,VWS V14.01,2013-07-21 23:21:00,
2013-07-21 19:22:00,85.8,77.8,30.04,ESE,123,1.0,6.0,77,0.00,,FEW,0.00,56.00,VWS V14.01,2013-07-21 23:22:00,
2013-07-21 19:23:00,85.8,77.8,30.04,ESE,123,0.0,1.0,77,0.00,,FEW,0.00,53.00,VWS V14.01,2013-07-21 23:23:00,
2013-07-21 19:24:00,85.8,77.8,30.04,ESE,123,0.0,1.0,77,0.00,,FEW,0.00,51.00,VWS V14.01,2013-07-21 23:24:00,
2013-07-21 19:26:00,85.7,77.7,30.04,ESE,109,1.0,4.0,77,0.00,,FEW,0.00,49.00,VWS V14.01,2013-07-21 23:26:00,
2013-07-21 19:27:00,85.7,77.7,30.04,ENE,74,0.0,4.0,77,0.00,,FEW,0.00,47.00,VWS V14.01,2013-07-21 23:27:00,
2013-07-21 19:28:00,85.7,77.7,30.04,East,85,1.0,4.0,77,0.00,,FEW,0.00,46.00,VWS V14.01,2013-07-21 23:28:00,
2013-07-21 19:29:00,85.7,78.1,30.04,East,93,1.0,4.0,78,0.00,,FEW,0.00,42.00,VWS V14.01,2013-07-21 23:29:00,
2013-07-21 19:31:00,85.5,77.5,30.04,ESE,121,2.0,4.0,77,0.00,,FEW,0.00,40.00,VWS V14.01,2013-07-21 23:31:00,
2013-07-21 19:32:00,85.5,77.5,30.04,SE,125,2.0,4.0,77,0.00,,FEW,0.00,40.00,VWS V14.01,2013-07-21 23:32:00,
2013-07-21 19:33:00,85.4,77.4,30.04,SE,132,2.0,4.0,77,0.00,,FEW,0.00,40.00,VWS V14.01,2013-07-21 23:33:00,
2013-07-21 19:34:00,85.3,77.3,30.04,SE,140,0.0,4.0,77,0.00,,FEW,0.00,39.00,VWS V14.01,2013-07-21 23:34:00,
2013-07-21 19:36:00,85.2,77.6,30.04,ESE,109,1.0,4.0,78,0.00,,FEW,0.00,37.00,VWS V14.01,2013-07-21 23:36:00,
2013-07-21 19:37:00,85.2,77.6,30.04,ENE,61,0.0,4.0,78,0.00,,FEW,0.00,37.00,VWS V14.01,2013-07-21 23:37:00,
2013-07-21 19:38:00,85.1,77.5,30.04,ESE,115,0.0,4.0,78,0.00,,FEW,0.00,35.00,VWS V14.01,2013-07-21 23:38:00,
2013-07-21 19:40:00,85.0,77.4,30.04,ENE,69,1.0,5.0,78,0.00,,FEW,0.00,33.00,VWS V14.01,2013-07-21 23:40:00,
2013-07-21 19:42:00,84.9,77.3,30.04,ESE,110,1.0,5.0,78,0.00,,FEW,0.00,32.00,VWS V14.01,2013-07-21 23:42:00,
2013-07-21 19:43:00,84.9,77.3,30.04,ENE,67,2.0,3.0,78,0.00,,FEW,0.00,30.00,VWS V14.01,2013-07-21 23:43:00,
2013-07-21 19:45:00,84.8,77.2,30.04,NE,46,2.0,7.0,78,0.00,,FEW,0.00,30.00,VWS V14.01,2013-07-21 23:45:00,
2013-07-21 19:47:00,84.8,77.2,30.04,SE,132,1.0,7.0,78,0.00,,FEW,0.00,28.00,VWS V14.01,2013-07-21 23:47:00,
2013-07-21 19:48:00,84.7,77.5,30.04,SE,142,1.0,7.0,79,0.00,,FEW,0.00,26.00,VWS V14.01,2013-07-21 23:48:00,
2013-07-21 19:50:00,84.7,77.5,30.04,ENE,69,0.0,7.0,79,0.00,,FEW,0.00,25.00,VWS V14.01,2013-07-21 23:50:00,
2013-07-21 19:52:00,84.7,77.5,30.04,SE,138,0.0,7.0,79,0.00,,FEW,0.00,23.00,VWS V14.01,2013-07-21 23:52:00,
2013-07-21 19:53:00,84.7,77.8,30.04,SE,146,1.0,2.0,80,0.00,,FEW,0.00,21.00,VWS V14.01,2013-07-21 23:53:00,
2013-07-21 19:55:00,84.7,77.8,30.04,ESE,123,4.0,4.0,80,0.00,,FEW,0.00,23.00,VWS V14.01,2013-07-21 23:55:00,
2013-07-21 19:57:00,84.5,77.7,30.04,ESE,121,4.0,5.0,80,0.00,,FEW,0.00,23.00,VWS V14.01,2013-07-21 23:57:00,
2013-07-21 19:58:00,84.5,77.7,30.04,SE,124,1.0,5.0,80,0.00,,FEW,0.00,18.00,VWS V14.01,2013-07-21 23:58:00,
2013-07-21 20:00:00,84.4,77.6,30.04,ESE,103,0.0,5.0,80,0.00,,FEW,0.00,11.00,VWS V14.01,2013-07-22 00:00:00,
2013-07-21 20:02:00,84.3,77.5,30.05,ENE,67,3.0,5.0,80,0.00,,FEW,0.00,9.00,VWS V14.01,2013-07-22 00:02:00,
2013-07-21 20:03:00,84.3,77.5,30.05,ENE,64,3.0,6.0,80,0.00,,FEW,0.00,9.00,VWS V14.01,2013-07-22 00:03:00,
2013-07-21 20:05:00,84.2,77.4,30.05,ESE,118,1.0,6.0,80,0.00,,FEW,0.00,9.00,VWS V14.01,2013-07-22 00:05:00,
2013-07-21 20:07:00,84.2,77.7,30.05,ENE,72,2.0,7.0,81,0.00,,FEW,0.00,9.00,VWS V14.01,2013-07-22 00:07:00,
2013-07-21 20:08:00,84.2,77.7,30.05,ENE,77,3.0,7.0,81,0.00,,FEW,0.00,7.00,VWS V14.01,2013-07-22 00:08:00,
2013-07-21 20:10:00,84.1,77.6,30.05,ENE,74,3.0,7.0,81,0.00,,FEW,0.00,5.00,VWS V14.01,2013-07-22 00:10:00,
2013-07-21 20:12:00,84.0,77.5,30.05,NE,52,2.0,2.0,81,0.00,,FEW,0.00,0.00,VWS V14.01,2013-07-22 00:12:00,
2013-07-21 20:13:00,84.0,77.5,30.05,ESE,123,1.0,2.0,81,0.00,,FEW,0.00,0.00,VWS V14.01,2013-07-22 00:13:00,
2013-07-21 20:16:00,83.9,77.4,30.05,East,96,2.0,5.0,81,0.00,,FEW,0.00,0.00,VWS V14.01,2013-07-22 00:16:00,
2013-07-21 20:17:00,83.8,77.3,30.06,ESE,117,0.0,5.0,81,0.00,,FEW,0.00,0.00,VWS V14.01,2013-07-22 00:17:00,
2013-07-21 20:18:00,83.9,77.4,30.06,SE,132,0.0,5.0,81,0.00,,FEW,0.00,0.00,VWS V14.01,2013-07-22 00:18:00,
2013-07-21 20:21:00,83.8,77.7,30.06,ESE,117,2.0,6.0,82,0.00,,FEW,0.00,0.00,VWS V14.01,2013-07-22 00:21:00,
2013-07-21 20:22:00,83.8,77.7,30.06,ESE,112,2.0,3.0,82,0.00,,FEW,0.00,0.00,VWS V14.01,2013-07-22 00:22:00,
2013-07-21 20:23:00,83.8,77.7,30.06,ESE,119,1.0,3.0,82,0.00,,FEW,0.00,0.00,VWS V14.01,2013-07-22 00:23:00,
2013-07-21 20:24:00,83.8,77.7,30.06,ESE,119,0.0,3.0,82,0.00,,FEW,0.00,0.00,VWS V14.01,2013-07-22 00:24:00,
2013-07-21 20:26:00,83.7,77.6,30.06,SE,144,7.0,7.0,82,0.00,,FEW,0.00,0.00,VWS V14.01,2013-07-22 00:26:00,
2013-07-21 20:28:00,83.6,77.5,30.06,ENE,72,1.0,7.0,82,0.00,,FEW,0.00,0.00,VWS V14.01,2013-07-22 00:28:00,
2013-07-21 20:29:00,83.6,77.5,30.06,NE,51,1.0,7.0,82,0.00,,FEW,0.00,0.00,VWS V14.01,2013-07-22 00:29:00,
2013-07-21 20:31:00,83.6,77.9,30.06,ENE,57,3.0,7.0,83,0.00,,FEW,0.00,0.00,VWS V14.01,2013-07-22 00:31:00,
2013-07-21 20:33:00,83.5,77.8,30.07,East,101,0.0,2.0,83,0.00,,FEW,0.00,0.00,VWS V14.01,2013-07-22 00:33:00,
2013-07-21 20:34:00,83.5,77.8,30.07,East,99,3.0,5.0,83,0.00,,FEW,0.00,0.00,VWS V14.01,2013-07-22 00:34:00,
2013-07-21 20:36:00,83.4,77.3,30.07,East,93,0.0,5.0,82,0.00,,FEW,0.00,0.00,VWS V14.01,2013-07-22 00:36:00,
2013-07-21 20:38:00,83.4,77.7,30.07,NE,40,2.0,8.0,83,0.00,,FEW,0.00,0.00,VWS V14.01,2013-07-22 00:38:00,
2013-07-21 20:40:00,83.3,77.6,30.07,ENE,61,0.0,8.0,83,0.00,,FEW,0.00,0.00,VWS V14.01,2013-07-22 00:40:00,
2013-07-21 20:41:00,83.3,77.6,30.07,ESE,109,1.0,8.0,83,0.00,,FEW,0.00,0.00,VWS V14.01,2013-07-22 00:41:00,
2013-07-21 20:43:00,83.3,77.2,30.07,ESE,103,0.0,6.0,82,0.00,,FEW,0.00,0.00,VWS V14.01,2013-07-22 00:43:00,
2013-07-21 20:45:00,83.2,77.1,30.07,NE,46,0.0,6.0,82,0.00,,FEW,0.00,0.00,VWS V14.01,2013-07-22 00:45:00,
2013-07-21 20:46:00,83.2,77.1,30.07,ENE,59,1.0,6.0,82,0.00,,FEW,0.00,0.00,VWS V14.01,2013-07-22 00:46:00,
2013-07-21 20:48:00,83.2,77.1,30.07,ESE,107,1.0,6.0,82,0.00,,FEW,0.00,0.00,VWS V14.01,2013-07-22 00:48:00,
2013-07-21 20:50:00,83.2,77.5,30.07,SSE,151,6.0,7.0,83,0.00,,FEW,0.00,0.00,VWS V14.01,2013-07-22 00:50:00,
2013-07-21 20:51:00,83.1,77.0,30.07,ENE,62,2.0,7.0,82,0.00,,FEW,0.00,0.00,VWS V14.01,2013-07-22 00:51:00,
2013-07-21 20:53:00,83.1,77.4,30.07,SE,132,0.0,7.0,83,0.00,,FEW,0.00,0.00,VWS V14.01,2013-07-22 00:53:00,
2013-07-21 20:54:00,83.1,77.4,30.07,SE,132,0.0,7.0,83,0.00,,FEW,0.00,0.00,VWS V14.01,2013-07-22 00:54:00,
2013-07-21 20:55:00,83.1,77.4,30.07,ESE,117,3.0,7.0,83,0.00,,FEW,0.00,0.00,VWS V14.01,2013-07-22 00:55:00,
2013-07-21 20:57:00,83.1,77.4,30.07,SE,138,1.0,7.0,83,0.00,,FEW,0.00,0.00,VWS V14.01,2013-07-22 00:57:00,
2013-07-21 20:59:00,83.1,77.4,30.07,SE,124,0.0,7.0,83,0.00,,FEW,0.00,0.00,VWS V14.01,2013-07-22 00:59:00,
2013-07-21 21:00:00,83.1,77.4,30.07,ESE,103,1.0,7.0,83,0.00,,FEW,0.00,0.00,VWS V14.01,2013-07-22 01:00:00,
2013-07-21 21:01:00,83.1,77.4,30.07,East,91,0.0,7.0,83,0.00,,FEW,0.00,0.00,VWS V14.01,2013-07-22 01:01:00,
2013-07-21 21:02:00,83.1,77.4,30.08,East,87,3.0,7.0,83,0.00,,FEW,0.00,0.00,VWS V14.01,2013-07-22 01:02:00,
2013-07-21 21:04:00,83.1,77.4,30.08,SE,139,4.0,4.0,83,0.00,,FEW,0.00,0.00,VWS V14.01,2013-07-22 01:04:00,
2013-07-21 21:05:00,83.1,77.4,30.08,ENE,65,1.0,5.0,83,0.00,,FEW,0.00,0.00,VWS V14.01,2013-07-22 01:05:00,
2013-07-21 21:06:00,83.1,77.4,30.08,East,87,1.0,5.0,83,0.00,,FEW,0.00,0.00,VWS V14.01,2013-07-22 01:06:00,
2013-07-21 21:07:00,83.1,77.4,30.08,East,94,2.0,5.0,83,0.00,,FEW,0.00,0.00,VWS V14.01,2013-07-22 01:07:00,
2013-07-21 21:09:00,83.1,77.4,30.08,ESE,109,1.0,5.0,83,0.00,,FEW,0.00,0.00,VWS V14.01,2013-07-22 01:09:00,
2013-07-21 21:10:00,83.0,77.3,30.08,East,90,2.0,5.0,83,0.00,,FEW,0.00,0.00,VWS V14.01,2013-07-22 01:10:00,
2013-07-21 21:11:00,83.0,77.3,30.08,ESE,113,2.0,5.0,83,0.00,,FEW,0.00,0.00,VWS V14.01,2013-07-22 01:11:00,
2013-07-21 21:12:00,82.9,77.2,30.08,ESE,118,0.0,0.0,83,0.00,,FEW,0.00,0.00,VWS V14.01,2013-07-22 01:12:00,
2013-07-21 21:14:00,82.9,77.2,30.08,East,97,1.0,3.0,83,0.00,,FEW,0.00,0.00,VWS V14.01,2013-07-22 01:14:00,
2013-07-21 21:15:00,82.9,77.2,30.08,East,87,2.0,4.0,83,0.00,,FEW,0.00,0.00,VWS V14.01,2013-07-22 01:15:00,
2013-07-21 21:17:00,82.9,77.2,30.08,ENE,65,0.0,4.0,83,0.00,,FEW,0.00,0.00,VWS V14.01,2013-07-22 01:17:00,
2013-07-21 21:19:00,82.8,77.1,30.08,ENE,71,1.0,4.0,83,0.00,,FEW,0.00,0.00,VWS V14.01,2013-07-22 01:19:00,
2013-07-21 21:20:00,82.8,77.1,30.08,ESE,111,3.0,4.0,83,0.00,,FEW,0.00,0.00,VWS V14.01,2013-07-22 01:20:00,
2013-07-21 21:22:00,82.8,77.1,30.08,ENE,71,1.0,6.0,83,0.00,,FEW,0.00,0.00,VWS V14.01,2013-07-22 01:22:00,
2013-07-21 21:24:00,82.8,77.1,30.08,ESE,103,0.0,5.0,83,0.00,,FEW,0.00,0.00,VWS V14.01,2013-07-22 01:24:00,
2013-07-21 21:25:00,82.8,77.1,30.08,East,87,2.0,5.0,83,0.00,,FEW,0.00,0.00,VWS V14.01,2013-07-22 01:25:00,
2013-07-21 21:26:00,82.8,77.1,30.08,ESE,107,3.0,5.0,83,0.00,,FEW,0.00,0.00,VWS V14.01,2013-07-22 01:26:00,
2013-07-21 21:27:00,82.8,77.1,30.08,SE,140,2.0,5.0,83,0.00,,FEW,0.00,0.00,VWS V14.01,2013-07-22 01:27:00,
2013-07-21 21:29:00,82.8,77.1,30.08,East,86,0.0,5.0,83,0.00,,FEW,0.00,0.00,VWS V14.01,2013-07-22 01:29:00,
2013-07-21 21:30:00,82.8,77.1,30.08,East,86,0.0,5.0,83,0.00,,FEW,0.00,0.00,VWS V14.01,2013-07-22 01:30:00,
2013-07-21 21:31:00,82.8,77.1,30.08,East,81,1.0,5.0,83,0.00,,FEW,0.00,0.00,VWS V14.01,2013-07-22 01:31:00,
2013-07-21 21:32:00,82.8,77.1,30.09,ENE,76,2.0,6.0,83,0.00,,FEW,0.00,0.00,VWS V14.01,2013-07-22 01:32:00,
2013-07-21 21:33:00,82.7,77.0,30.09,ENE,74,2.0,6.0,83,0.00,,FEW,0.00,0.00,VWS V14.01,2013-07-22 01:33:00,
2013-07-21 21:34:00,82.7,77.0,30.09,NE,47,2.0,6.0,83,0.00,,FEW,0.00,0.00,VWS V14.01,2013-07-22 01:34:00,
2013-07-21 21:35:00,82.7,77.0,30.09,ENE,59,2.0,6.0,83,0.00,,FEW,0.00,0.00,VWS V14.01,2013-07-22 01:35:00,
2013-07-21 21:36:00,82.7,77.0,30.09,NE,49,0.0,6.0,83,0.00,,FEW,0.00,0.00,VWS V14.01,2013-07-22 01:36:00,
2013-07-21 21:38:00,82.7,77.0,30.09,ESE,103,0.0,6.0,83,0.00,,FEW,0.00,0.00,VWS V14.01,2013-07-22 01:38:00,
2013-07-21 21:39:00,82.7,77.0,30.09,SE,135,1.0,6.0,83,0.00,,FEW,0.00,0.00,VWS V14.01,2013-07-22 01:39:00,
2013-07-21 21:40:00,82.7,77.0,30.09,ENE,69,4.0,6.0,83,0.00,,FEW,0.00,0.00,VWS V14.01,2013-07-22 01:40:00,
2013-07-21 21:41:00,82.7,77.0,30.09,ENE,59,0.0,6.0,83,0.00,,FEW,0.00,0.00,VWS V14.01,2013-07-22 01:41:00,
2013-07-21 21:43:00,82.8,77.1,30.09,ENE,74,2.0,3.0,83,0.00,,FEW,0.00,0.00,VWS V14.01,2013-07-22 01:43:00,
2013-07-21 21:44:00,82.8,77.1,30.09,East,80,1.0,3.0,83,0.00,,FEW,0.00,0.00,VWS V14.01,2013-07-22 01:44:00,
2013-07-21 21:45:00,82.8,77.1,30.09,ENE,77,2.0,4.0,83,0.00,,FEW,0.00,0.00,VWS V14.01,2013-07-22 01:45:00,
2013-07-21 21:46:00,82.7,77.0,30.10,NE,44,1.0,4.0,83,0.00,,FEW,0.00,0.00,VWS V14.01,2013-07-22 01:46:00,
2013-07-21 21:48:00,82.7,77.0,30.10,ESE,103,0.0,7.0,83,0.00,,FEW,0.00,0.00,VWS V14.01,2013-07-22 01:48:00,
2013-07-21 21:50:00,82.7,77.0,30.10,SE,128,0.0,7.0,83,0.00,,FEW,0.00,0.00,VWS V14.01,2013-07-22 01:50:00,
2013-07-21 21:52:00,82.7,77.0,30.10,ESE,109,0.0,7.0,83,0.00,,FEW,0.00,0.00,VWS V14.01,2013-07-22 01:52:00,
2013-07-21 21:53:00,82.7,77.0,30.10,East,81,5.0,5.0,83,0.00,,FEW,0.00,0.00,VWS V14.01,2013-07-22 01:53:00,
2013-07-21 21:55:00,82.6,76.9,30.10,ENE,76,0.0,6.0,83,0.00,,FEW,0.00,0.00,VWS V14.01,2013-07-22 01:55:00,
2013-07-21 21:57:00,82.6,76.9,30.10,East,101,0.0,6.0,83,0.00,,FEW,0.00,0.00,VWS V14.01,2013-07-22 01:57:00,
2013-07-21 21:58:00,82.6,76.9,30.10,ENE,65,0.0,6.0,83,0.00,,FEW,0.00,0.00,VWS V14.01,2013-07-22 01:58:00,
2013-07-21 22:00:00,82.6,76.9,30.10,East,99,1.0,6.0,83,0.00,,FEW,0.00,0.00,VWS V14.01,2013-07-22 02:00:00,
2013-07-21 22:02:00,82.6,76.9,30.11,ESE,112,1.0,6.0,83,0.00,,FEW,0.00,0.00,VWS V14.01,2013-07-22 02:02:00,
2013-07-21 22:03:00,82.6,76.9,30.11,ESE,112,1.0,1.0,83,0.00,,FEW,0.00,0.00,VWS V14.01,2013-07-22 02:03:00,
2013-07-21 22:05:00,82.6,76.9,30.11,East,99,1.0,3.0,83,0.00,,FEW,0.00,0.00,VWS V14.01,2013-07-22 02:05:00,
2013-07-21 22:07:00,82.6,76.9,30.11,ENE,59,0.0,3.0,83,0.00,,FEW,0.00,0.00,VWS V14.01,2013-07-22 02:07:00,
2013-07-21 22:08:00,82.6,76.9,30.11,ENE,62,1.0,3.0,83,0.00,,FEW,0.00,0.00,VWS V14.01,2013-07-22 02:08:00,
2013-07-21 22:09:00,82.6,76.9,30.11,ENE,62,0.0,3.0,83,0.00,,FEW,0.00,0.00,VWS V14.01,2013-07-22 02:09:00,
2013-07-21 22:10:00,82.5,76.8,30.11,ENE,72,2.0,3.0,83,0.00,,FEW,0.00,0.00,VWS V14.01,2013-07-22 02:10:00,
2013-07-21 22:12:00,82.5,76.8,30.11,ENE,57,1.0,1.0,83,0.00,,FEW,0.00,0.00,VWS V14.01,2013-07-22 02:12:00,
2013-07-21 22:13:00,82.5,76.8,30.11,East,95,2.0,2.0,83,0.00,,FEW,0.00,0.00,VWS V14.01,2013-07-22 02:13:00,
2013-07-21 22:14:00,82.5,76.8,30.11,East,88,2.0,2.0,83,0.00,,FEW,0.00,0.00,VWS V14.01,2013-07-22 02:14:00,
2013-07-21 22:15:00,82.5,76.8,30.11,East,96,0.0,2.0,83,0.00,,FEW,0.00,0.00,VWS V14.01,2013-07-22 02:15:00,
2013-07-21 22:17:00,82.5,76.8,30.11,East,100,1.0,2.0,83,0.00,,FEW,0.00,0.00,VWS V14.01,2013-07-22 02:17:00,
2013-07-21 22:18:00,82.5,76.8,30.11,ENE,71,0.0,2.0,83,0.00,,FEW,0.00,0.00,VWS V14.01,2013-07-22 02:18:00,
2013-07-21 22:19:00,82.5,76.8,30.11,ENE,74,0.0,2.0,83,0.00,,FEW,0.00,0.00,VWS V14.01,2013-07-22 02:19:00,
2013-07-21 22:20:00,82.5,76.8,30.11,ENE,68,1.0,2.0,83,0.00,,FEW,0.00,0.00,VWS V14.01,2013-07-22 02:20:00,
2013-07-21 22:22:00,82.5,76.8,30.11,ENE,57,4.0,4.0,83,0.00,,FEW,0.00,0.00,VWS V14.01,2013-07-22 02:22:00,
2013-07-21 22:24:00,82.5,76.8,30.11,ESE,107,1.0,4.0,83,0.00,,FEW,0.00,0.00,VWS V14.01,2013-07-22 02:24:00,
2013-07-21 22:25:00,82.4,76.7,30.11,ESE,120,1.0,4.0,83,0.00,,FEW,0.00,0.00,VWS V14.01,2013-07-22 02:25:00,
2013-07-21 22:26:00,82.4,76.7,30.11,ENE,73,4.0,4.0,83,0.00,,FEW,0.00,0.00,VWS V14.01,2013-07-22 02:26:00,
2013-07-21 22:28:00,82.4,76.7,30.11,East,94,1.0,4.0,83,0.00,,FEW,0.00,0.00,VWS V14.01,2013-07-22 02:28:00,
2013-07-21 22:29:00,82.4,76.7,30.11,ENE,59,0.0,4.0,83,0.00,,FEW,0.00,0.00,VWS V14.01,2013-07-22 02:29:00,
2013-07-21 22:31:00,82.3,76.6,30.11,NE,56,2.0,4.0,83,0.00,,FEW,0.00,0.00,VWS V14.01,2013-07-22 02:31:00,
2013-07-21 22:33:00,82.3,76.6,30.11,ENE,75,0.0,0.0,83,0.00,,FEW,0.00,0.00,VWS V14.01,2013-07-22 02:33:00,
2013-07-21 22:34:00,82.3,76.6,30.11,ENE,77,1.0,1.0,83,0.00,,FEW,0.00,0.00,VWS V14.01,2013-07-22 02:34:00,
2013-07-21 22:36:00,82.3,76.6,30.11,ENE,71,1.0,3.0,83,0.00,,FEW,0.00,0.00,VWS V14.01,2013-07-22 02:36:00,
2013-07-21 22:38:00,82.3,76.6,30.11,ENE,67,2.0,3.0,83,0.00,,FEW,0.00,0.00,VWS V14.01,2013-07-22 02:38:00,
2013-07-21 22:39:00,82.3,76.6,30.11,ENE,63,0.0,3.0,83,0.00,,FEW,0.00,0.00,VWS V14.01,2013-07-22 02:39:00,
2013-07-21 22:40:00,82.3,76.6,30.11,ENE,63,0.0,3.0,83,0.00,,FEW,0.00,0.00,VWS V14.01,2013-07-22 02:40:00,
2013-07-21 22:41:00,82.2,76.5,30.11,East,86,3.0,3.0,83,0.00,,FEW,0.00,0.00,VWS V14.01,2013-07-22 02:41:00,
2013-07-21 22:43:00,82.2,76.5,30.11,ENE,63,1.0,1.0,83,0.00,,FEW,0.00,0.00,VWS V14.01,2013-07-22 02:43:00,
2013-07-21 22:44:00,82.1,76.4,30.11,ENE,67,0.0,2.0,83,0.00,,FEW,0.00,0.00,VWS V14.01,2013-07-22 02:44:00,
2013-07-21 22:45:00,82.1,76.4,30.11,ENE,67,0.0,2.0,83,0.00,,FEW,0.00,0.00,VWS V14.01,2013-07-22 02:45:00,
2013-07-21 22:46:00,82.1,76.4,30.11,ENE,74,2.0,6.0,83,0.00,,FEW,0.00,0.00,VWS V14.01,2013-07-22 02:46:00,
2013-07-21 22:48:00,82.1,76.4,30.11,ENE,64,1.0,6.0,83,0.00,,FEW,0.00,0.00,VWS V14.01,2013-07-22 02:48:00,
2013-07-21 22:49:00,82.0,76.3,30.11,ENE,70,1.0,6.0,83,0.00,,FEW,0.00,0.00,VWS V14.01,2013-07-22 02:49:00,
2013-07-21 22:50:00,82.0,76.3,30.11,ENE,70,0.0,6.0,83,0.00,,FEW,0.00,0.00,VWS V14.01,2013-07-22 02:50:00,
2013-07-21 22:51:00,82.0,76.3,30.11,NE,47,3.0,6.0,83,0.00,,FEW,0.00,0.00,VWS V14.01,2013-07-22 02:51:00,
2013-07-21 22:53:00,82.0,76.3,30.11,East,79,3.0,5.0,83,0.00,,FEW,0.00,0.00,VWS V14.01,2013-07-22 02:53:00,
2013-07-21 22:55:00,82.0,76.3,30.11,East,80,0.0,5.0,83,0.00,,FEW,0.00,0.00,VWS V14.01,2013-07-22 02:55:00,
2013-07-21 22:56:00,82.0,76.3,30.11,East,80,0.0,5.0,83,0.00,,FEW,0.00,0.00,VWS V14.01,2013-07-22 02:56:00,
2013-07-21 22:58:00,82.0,76.7,30.11,East,89,2.0,5.0,84,0.00,,FEW,0.00,0.00,VWS V14.01,2013-07-22 02:58:00,
2013-07-21 23:00:00,82.0,76.7,30.11,NE,53,3.0,5.0,84,0.00,,FEW,0.00,0.00,VWS V14.01,2013-07-22 03:00:00,
2013-07-21 23:01:00,82.0,76.7,30.12,ENE,70,1.0,5.0,84,0.00,,FEW,0.00,0.00,VWS V14.01,2013-07-22 03:01:00,
2013-07-21 23:02:00,82.0,76.7,30.12,ENE,70,0.0,5.0,84,0.00,,FEW,0.00,0.00,VWS V14.01,2013-07-22 03:02:00,
2013-07-21 23:03:00,82.0,76.7,30.12,East,92,2.0,2.0,84,0.00,,FEW,0.00,0.00,VWS V14.01,2013-07-22 03:03:00,
2013-07-21 23:05:00,82.0,76.7,30.12,East,98,0.0,2.0,84,0.00,,FEW,0.00,0.00,VWS V14.01,2013-07-22 03:05:00,
2013-07-21 23:07:00,81.9,76.6,30.12,ENE,57,3.0,3.0,84,0.00,,FEW,0.00,0.00,VWS V14.01,2013-07-22 03:07:00,
2013-07-21 23:08:00,81.9,76.6,30.12,ENE,58,0.0,3.0,84,0.00,,FEW,0.00,0.00,VWS V14.01,2013-07-22 03:08:00,
2013-07-21 23:10:00,81.9,76.6,30.12,ENE,59,0.0,3.0,84,0.00,,FEW,0.00,0.00,VWS V14.01,2013-07-22 03:10:00,
2013-07-21 23:12:00,81.9,76.6,30.12,ESE,105,0.0,3.0,84,0.00,,FEW,0.00,0.00,VWS V14.01,2013-07-22 03:12:00,
2013-07-21 23:14:00,81.8,76.5,30.12,ENE,62,3.0,3.0,84,0.00,,FEW,0.00,0.00,VWS V14.01,2013-07-22 03:14:00,
2013-07-21 23:15:00,81.8,76.5,30.12,East,92,0.0,5.0,84,0.00,,FEW,0.00,0.00,VWS V14.01,2013-07-22 03:15:00,
2013-07-21 23:17:00,81.7,76.4,30.11,East,96,1.0,5.0,84,0.00,,FEW,0.00,0.00,VWS V14.01,2013-07-22 03:17:00,
2013-07-21 23:19:00,81.7,76.4,30.11,ESE,107,2.0,5.0,84,0.00,,FEW,0.00,0.00,VWS V14.01,2013-07-22 03:19:00,
2013-07-21 23:20:00,81.7,76.4,30.11,ENE,62,3.0,5.0,84,0.00,,FEW,0.00,0.00,VWS V14.01,2013-07-22 03:20:00,
2013-07-21 23:22:00,81.8,76.5,30.11,East,92,0.0,5.0,84,0.00,,FEW,0.00,0.00,VWS V14.01,2013-07-22 03:22:00,
2013-07-21 23:24:00,81.8,76.5,30.11,East,91,1.0,1.0,84,0.00,,FEW,0.00,0.00,VWS V14.01,2013-07-22 03:24:00,
2013-07-21 23:25:00,81.8,76.5,30.11,NE,52,2.0,2.0,84,0.00,,FEW,0.00,0.00,VWS V14.01,2013-07-22 03:25:00,
2013-07-21 23:26:00,81.8,76.5,30.11,ENE,69,2.0,2.0,84,0.00,,FEW,0.00,0.00,VWS V14.01,2013-07-22 03:26:00,
2013-07-21 23:27:00,81.7,76.4,30.11,ESE,105,0.0,2.0,84,0.00,,FEW,0.00,0.00,VWS V14.01,2013-07-22 03:27:00,
2013-07-21 23:29:00,81.7,76.4,30.11,East,98,1.0,2.0,84,0.00,,FEW,0.00,0.00,VWS V14.01,2013-07-22 03:29:00,
2013-07-21 23:30:00,81.7,76.4,30.11,ENE,78,1.0,2.0,84,0.00,,FEW,0.00,0.00,VWS V14.01,2013-07-22 03:30:00,
2013-07-21 23:31:00,81.8,76.5,30.11,ENE,69,2.0,2.0,84,0.00,,FEW,0.00,0.00,VWS V14.01,2013-07-22 03:31:00,
2013-07-21 23:32:00,81.7,76.4,30.12,East,84,0.0,2.0,84,0.00,,FEW,0.00,0.00,VWS V14.01,2013-07-22 03:32:00,
2013-07-21 23:34:00,81.7,76.4,30.12,East,81,3.0,3.0,84,0.00,,FEW,0.00,0.00,VWS V14.01,2013-07-22 03:34:00,
2013-07-21 23:35:00,81.7,76.4,30.12,ENE,67,4.0,5.0,84,0.00,,FEW,0.00,0.00,VWS V14.01,2013-07-22 03:35:00,
2013-07-21 23:36:00,81.7,76.4,30.12,East,90,0.0,5.0,84,0.00,,FEW,0.00,0.00,VWS V14.01,2013-07-22 03:36:00,
2013-07-21 23:37:00,81.6,75.9,30.12,ESE,117,2.0,5.0,83,0.00,,FEW,0.00,0.00,VWS V14.01,2013-07-22 03:37:00,
2013-07-21 23:40:00,81.7,76.4,30.12,ESE,111,0.0,5.0,84,0.00,,FEW,0.00,0.00,VWS V14.01,2013-07-22 03:40:00,
2013-07-21 23:41:00,81.7,76.4,30.12,ENE,74,1.0,5.0,84,0.00,,FEW,0.00,0.00,VWS V14.01,2013-07-22 03:41:00,
2013-07-21 23:42:00,81.7,76.4,30.12,East,80,0.0,5.0,84,0.00,,FEW,0.00,0.00,VWS V14.01,2013-07-22 03:42:00,
2013-07-21 23:45:00,81.7,76.4,30.12,ENE,72,1.0,3.0,84,0.00,,FEW,0.00,0.00,VWS V14.01,2013-07-22 03:45:00,
2013-07-21 23:46:00,81.7,76.4,30.12,East,90,0.0,3.0,84,0.00,,FEW,0.00,0.00,VWS V14.01,2013-07-22 03:46:00,
2013-07-21 23:47:00,81.7,76.4,30.12,ENE,67,1.0,3.0,84,0.00,,FEW,0.00,0.00,VWS V14.01,2013-07-22 03:47:00,
2013-07-21 23:51:00,81.8,76.5,30.12,NE,55,0.0,3.0,84,0.00,,FEW,0.00,0.00,VWS V14.01,2013-07-22 03:51:00,
2013-07-21 23:52:00,81.8,76.5,30.12,ESE,123,2.0,3.0,84,0.00,,FEW,0.00,0.00,VWS V14.01,2013-07-22 03:52:00,
2013-07-21 23:56:00,81.8,76.5,30.12,ESE,107,2.0,3.0,84,0.00,,FEW,0.00,0.00,VWS V14.01,2013-07-22 03:56:00,
2013-07-21 23:57:00,81.8,76.5,30.12,ESE,108,1.0,3.0,84,0.00,,FEW,0.00,0.00,VWS V14.01,2013-07-22 03:57:00,
2013-07-21 23:58:00,81.7,76.4,30.12,ESE,108,1.0,3.0,84,0.00,,FEW,0.00,0.00,VWS V14.01,2013-07-22 03:58:00,